GEFSSE_500_meanwind_006.txt.gz
Wind_Speed
5 4 2 2 3 4 4 5 7 8 11 13 14 13 12 11 11 12 12 11 10 9 11 13 15 14 12 10 9 8 10 11 10 9 7 7 7 6 6 8 9 8 7
6 5 4 4 4 5 5 5 5 7 9 10 11 11 10 10 10 11 10 10 9 8 9 12 15 16 13 10 9 7 7 8 10 9 7 4 4 5 5 4 5 5 5
6 6 6 5 5 6 6 6 6 6 7 7 8 8 9 10 10 10 10 9 8 7 9 13 17 17 14 11 9 7 5 5 6 8 9 6 4 4 4 4 3 1 2
7 8 7 7 7 8 8 8 7 6 5 4 5 6 7 9 9 9 9 8 8 7 9 15 17 15 13 11 10 6 4 4 4 6 8 7 6 5 4 4 4 4 2
8 9 9 9 9 9 10 9 8 7 5 4 4 5 6 7 8 8 9 8 8 8 10 16 16 13 12 12 11 9 6 6 6 6 6 6 6 7 5 6 5 4 4
8 10 10 10 10 10 10 10 10 9 8 8 9 10 10 10 10 10 10 9 9 10 13 16 15 13 12 12 13 12 10 8 8 8 9 8 7 7 6 7 7 6 5
8 9 10 11 11 11 12 12 12 13 13 14 16 17 17 16 15 15 13 11 11 12 14 15 14 14 14 14 14 14 12 11 9 9 10 10 9 9 8 7 7 8 7
10 10 11 12 13 13 14 15 16 17 19 20 22 23 23 22 20 19 18 15 15 17 17 17 17 16 17 18 17 17 16 15 12 9 9 11 11 11 11 9 8 8 9
14 15 16 17 18 18 19 20 20 22 23 25 27 27 26 25 24 22 21 20 20 21 21 20 21 21 22 23 22 21 21 21 18 14 12 13 13 12 13 12 9 8 9
21 21 21 22 23 24 24 24 24 24 26 27 28 28 27 26 25 24 23 23 24 24 24 24 24 25 26 26 27 26 26 26 24 20 17 17 17 14 12 11 11 9 8
25 27 28 28 28 28 27 27 26 26 26 27 27 27 26 26 25 24 24 25 26 26 27 28 29 29 30 30 30 29 29 29 28 26 22 21 21 20 15 13 13 11 9
30 31 33 31 29 28 28 28 27 28 27 27 26 27 27 27 25 24 23 24 26 27 28 30 31 32 32 32 31 30 30 30 29 28 27 26 26 24 21 18 17 16 12
33 34 35 34 31 29 29 28 27 28 27 25 25 25 26 27 25 24 23 24 26 26 26 27 27 29 29 30 29 28 28 29 28 27 28 28 29 29 26 23 22 21 18
34 35 35 36 34 31 30 29 28 26 25 23 23 23 24 25 24 23 22 23 23 22 20 19 19 21 22 23 25 25 25 24 23 24 26 27 28 30 30 29 27 25 22
34 34 33 33 33 32 30 29 28 26 25 24 24 24 23 24 24 24 24 23 22 20 18 18 18 20 22 23 24 25 25 24 21 22 25 25 25 26 29 31 31 30 27
40 37 33 31 32 33 32 31 29 27 25 25 25 24 24 24 24 23 22 21 21 21 20 19 20 21 22 23 24 25 26 25 24 25 25 25 25 25 26 29 31 32 30
43 38 35 34 36 37 35 32 29 27 27 25 23 22 24 25 25 24 23 23 22 21 20 20 20 21 21 22 23 24 24 25 25 24 24 25 25 25 25 26 28 28 29
51 34 31 34 35 35 34 32 30 28 25 22 22 22 23 24 24 23 22 22 22 21 21 21 20 20 20 20 19 19 20 21 23 23 24 25 26 25 25 25 27 28 30
51 45 41 33 28 27 25 24 24 23 22 23 24 23 21 20 19 18 18 19 21 22 22 21 20 19 18 17 16 16 18 20 21 21 21 22 23 24 25 26 27 28 31
51 48 44 40 30 20 16 16 19 23 23 24 25 24 22 20 18 16 15 16 18 19 19 19 18 18 17 16 16 16 17 17 17 18 19 19 19 21 24 26 27 28 30
46 47 46 38 32 26 20 19 21 22 23 23 23 24 25 24 21 18 16 15 16 17 17 17 17 17 17 18 17 16 15 14 13 14 16 18 20 20 23 26 27 28 28
45 42 37 31 28 26 21 20 21 20 20 21 21 22 23 24 22 20 19 18 17 17 17 17 17 18 19 19 18 17 16 15 13 13 14 16 18 21 23 25 27 28 27
41 38 33 28 25 24 22 20 19 19 18 19 18 18 18 20 21 20 19 19 19 19 20 21 20 20 20 20 19 19 18 18 17 15 14 15 15 18 21 24 26 28 28
38 36 33 30 27 25 24 21 21 21 17 17 19 20 18 18 19 20 20 20 20 21 21 22 22 22 22 22 23 22 20 20 20 20 17 15 16 18 19 21 24 27 28
39 38 35 33 31 30 29 28 27 25 24 24 24 25 24 21 20 20 21 22 23 23 23 23 24 24 23 24 25 25 23 21 20 21 21 19 16 18 20 21 23 26 27
42 41 41 40 39 39 38 37 34 32 32 32 30 30 29 27 25 23 22 23 24 26 27 27 27 27 26 25 26 25 24 23 22 21 22 21 19 18 19 22 24 26 26

GEFSSE_500_meanwind_012.txt.gz
Wind_Speed
12 14 15 14 12 11 9 8 5 4 4 5 6 6 7 7 7 7 7 7 7 6 8 11 12 11 7 5 4 4 5 6 7 7 7 8 8 7 7 7 5 5 4
12 13 15 16 15 13 12 10 8 7 5 3 3 4 5 4 4 4 4 3 3 3 6 10 12 10 8 5 3 3 3 4 5 6 6 6 6 5 4 4 4 4 4
11 13 15 17 17 15 13 11 10 9 7 4 1 1 2 1 1 1 1 1 1 2 4 8 11 9 8 6 4 2 2 2 2 4 5 5 4 3 3 4 4 3 3
13 15 16 17 17 16 15 14 12 11 9 6 4 2 2 3 3 3 3 3 4 5 5 6 8 7 6 6 5 3 2 3 3 2 3 4 3 3 2 2 3 4 2
15 17 17 17 17 16 15 14 13 12 10 8 7 6 7 7 8 8 8 7 7 7 8 7 7 6 4 4 4 3 1 1 2 3 3 3 3 3 3 2 2 2 3
15 16 16 16 15 14 14 14 14 13 12 11 11 12 13 14 14 13 13 12 12 12 12 11 9 8 7 6 5 4 2 2 2 2 4 5 5 4 4 3 2 2 3
14 14 15 15 15 14 14 14 15 15 16 16 16 18 19 20 20 19 19 18 17 16 16 16 14 13 12 12 11 10 9 8 7 5 5 6 7 7 7 6 4 3 2
14 16 16 16 16 16 16 16 17 18 20 20 21 21 22 22 22 23 22 22 22 21 20 20 20 19 18 18 17 16 15 14 13 12 10 8 7 8 9 9 8 7 5
17 19 19 18 18 19 20 21 21 22 23 23 23 22 22 22 22 23 23 24 25 24 23 23 23 23 23 23 22 21 21 20 18 17 15 13 12 11 10 10 11 12 10
21 22 23 23 23 23 24 25 26 27 26 26 25 24 23 22 22 22 23 24 25 26 26 26 26 26 26 26 26 25 25 26 24 22 20 18 17 16 15 13 13 14 14
25 26 27 28 29 30 30 30 31 32 31 29 27 25 24 22 22 22 22 23 25 26 27 27 28 29 29 29 30 29 28 28 27 26 24 22 21 20 20 18 17 17 16
30 31 32 34 34 35 35 35 36 37 36 33 29 27 25 23 22 22 22 24 25 25 26 27 29 30 31 32 32 30 27 25 24 25 24 24 23 23 23 23 23 21 19
34 36 37 37 35 36 36 37 38 40 39 36 33 30 27 25 23 23 23 25 25 25 26 28 30 30 30 29 29 28 26 23 21 20 21 21 21 23 24 24 25 25 24
37 39 39 37 34 34 34 35 37 39 40 39 36 33 30 27 26 24 24 25 25 25 26 27 27 27 28 29 28 26 23 20 20 19 19 20 20 20 22 23 24 25 26
39 40 38 34 30 28 29 32 33 36 40 41 39 37 34 31 28 26 26 27 27 26 26 26 26 26 27 27 25 22 22 21 22 21 21 21 20 19 20 21 22 24 25
40 40 36 34 34 31 29 28 29 33 37 41 41 40 37 33 29 27 26 26 25 26 26 26 27 26 26 24 22 21 23 23 24 24 23 23 23 22 23 23 23 24 25
41 41 40 38 36 33 30 28 29 30 32 38 41 39 35 31 28 25 25 25 25 26 27 27 27 27 27 26 25 24 24 24 25 25 24 23 24 24 24 24 24 24 24
41 41 39 39 37 34 30 28 28 26 27 30 34 35 33 31 28 26 25 25 26 27 28 29 29 30 29 29 27 26 25 24 24 23 22 21 21 22 22 22 23 24 24
42 42 41 39 37 33 30 27 25 22 20 23 28 31 32 31 28 25 25 25 26 27 28 28 29 30 31 30 29 27 25 24 22 21 20 19 19 20 20 20 21 23 24
41 41 39 38 36 32 28 26 23 19 17 19 22 26 28 28 27 26 26 26 26 27 27 27 28 30 30 30 29 27 24 22 21 20 19 18 18 18 18 19 19 21 23
40 39 37 35 33 30 27 25 23 19 18 18 19 21 23 25 26 26 27 27 27 27 27 27 27 27 27 27 26 25 23 22 20 20 19 17 16 15 16 17 17 18 20
37 36 35 34 32 30 28 25 23 22 20 19 20 21 23 25 25 25 25 25 26 27 28 28 26 25 25 26 25 24 23 22 21 20 19 17 15 14 14 14 15 17 18
35 35 35 36 35 34 31 28 25 24 24 23 23 23 24 25 26 25 24 24 25 27 28 29 28 26 26 26 26 25 24 23 22 22 21 19 17 16 15 13 14 15 17
36 38 40 40 40 39 36 33 31 29 29 29 29 29 28 28 29 28 27 26 26 27 29 30 30 29 28 28 28 27 26 25 24 24 23 21 20 19 17 15 15 15 16
41 43 45 46 46 44 43 41 39 37 36 35 36 35 35 35 34 33 31 30 30 30 31 32 33 33 32 31 31 30 29 27 26 26 24 22 21 21 20 18 16 16 16
44 46 47 47 47 47 46 45 44 43 42 42 41 41 41 41 41 40 39 37 36 35 35 35 36 36 35 35 34 33 32 29 27 27 26 24 22 21 21 19 18 17 17

GEFSSE_500_meanwind_018.txt.gz
Wind_Speed
6 5 4 4 5 6 8 9 10 10 10 9 7 6 5 4 2 3 3 3 1 1 4 7 8 7 3 3 3 3 3 3 3 3 4 5 6 7 7 7 7 6 6
6 5 4 4 5 6 7 8 10 10 11 10 9 8 7 6 5 4 3 3 3 3 4 6 8 7 4 2 4 5 4 3 3 3 3 4 5 5 5 6 6 5 5
7 7 6 6 6 6 6 7 9 10 10 10 10 9 9 8 7 6 5 5 6 6 6 6 6 6 4 1 3 5 5 4 2 1 2 2 3 4 4 4 4 4 4
7 7 7 6 6 6 6 7 8 9 9 10 10 11 11 10 9 8 8 8 9 10 10 8 7 6 5 2 1 3 4 5 4 2 2 2 1 2 3 3 3 4 5
7 7 7 7 7 7 8 8 8 9 9 10 11 12 13 13 12 12 12 12 12 13 13 12 10 8 7 6 4 2 2 3 4 4 3 3 3 3 3 3 4 4 5
9 9 9 10 11 11 11 11 11 12 12 12 13 14 16 16 17 17 17 16 17 16 16 16 15 13 11 9 8 7 5 4 4 5 5 5 5 5 5 5 5 6 6
12 12 12 13 14 15 15 16 16 16 17 17 17 18 19 20 21 21 21 21 21 21 20 19 19 18 16 14 13 12 11 9 8 7 7 7 8 8 8 8 8 7 8
14 15 17 17 18 19 20 21 22 22 22 22 22 22 22 24 25 25 25 24 24 24 24 23 23 22 21 20 19 17 16 16 14 13 11 11 10 11 11 12 12 11 9
17 19 21 22 23 24 26 28 29 29 29 28 28 27 27 28 28 29 28 28 27 26 26 26 26 26 25 25 24 23 21 21 20 19 17 16 15 14 15 14 14 15 14
21 23 25 27 28 29 30 32 33 34 34 34 33 32 31 31 31 31 31 30 29 29 28 28 28 29 29 28 28 28 26 25 25 25 24 22 20 20 19 19 18 18 17
24 27 29 30 31 32 34 35 35 35 37 37 37 35 35 34 33 33 32 31 31 30 29 29 30 30 30 30 30 30 29 29 29 30 29 28 26 25 24 23 22 21 20
28 29 31 32 32 33 35 35 35 35 37 38 38 37 37 36 35 35 33 32 32 31 30 30 31 31 30 30 31 32 31 31 32 31 30 27 26 26 27 26 25 24 23
30 31 33 34 33 34 34 33 33 33 35 37 38 38 39 38 37 37 35 33 33 32 31 31 32 31 31 31 31 31 31 30 29 27 24 23 22 23 25 26 27 26 26
31 32 33 34 33 33 32 32 32 31 32 34 36 39 40 40 40 39 37 34 33 32 31 31 32 32 32 31 31 30 29 28 26 25 22 20 19 19 20 22 24 25 27
31 32 32 32 33 34 33 32 32 31 31 31 33 36 39 40 40 41 39 37 35 33 33 33 33 32 32 31 29 28 27 24 23 23 22 20 18 18 18 19 20 21 23
32 32 32 33 34 34 33 32 31 30 30 30 32 34 36 37 39 40 41 40 38 37 35 34 33 32 31 30 29 28 26 24 23 22 22 21 20 20 20 20 19 20 21
32 33 34 35 36 35 34 30 28 28 28 28 30 32 34 35 37 38 40 40 39 37 34 32 32 31 30 29 29 28 26 24 22 21 22 22 22 22 22 22 22 22 22
33 34 36 37 37 35 33 29 28 27 26 27 28 30 31 32 34 35 36 38 38 37 35 33 32 32 31 30 29 29 28 25 24 24 23 23 24 23 22 22 23 24 24
35 37 38 38 36 35 32 30 29 28 28 28 28 28 28 29 31 32 33 35 36 36 35 34 33 33 32 31 30 30 30 28 27 26 25 25 24 23 22 21 22 23 24
36 36 36 35 34 33 32 32 32 32 31 30 30 29 28 28 28 29 31 33 33 34 34 34 34 33 33 32 31 31 32 32 30 28 26 25 24 23 21 20 21 22 23
32 32 32 33 34 34 34 35 35 36 35 33 32 31 30 29 28 28 29 30 31 33 33 33 33 34 34 33 32 32 32 32 32 30 28 26 24 23 21 20 19 19 20
31 32 34 36 37 38 38 39 39 39 38 37 36 35 34 33 32 30 29 29 29 31 32 32 32 33 33 33 32 31 31 31 31 30 29 26 25 22 20 18 17 17 17
34 36 38 39 40 41 42 42 42 42 41 41 39 38 38 37 36 35 33 32 31 30 30 31 31 31 31 32 32 30 29 30 30 29 28 26 25 23 20 18 17 16 16
37 38 40 41 42 43 44 44 44 44 44 43 42 42 42 41 41 41 39 38 36 34 33 32 32 31 31 31 32 31 30 29 29 29 29 27 26 24 22 20 18 17 15
38 39 40 41 43 44 45 46 47 47 47 47 46 46 45 45 46 46 46 44 42 40 38 36 34 33 32 31 32 32 31 31 31 31 30 29 28 26 24 23 20 18 17
38 40 41 43 45 47 49 50 52 52 52 52 51 51 50 50 49 50 50 50 49 47 44 42 40 38 36 34 33 33 34 34 34 34 33 32 30 28 27 25 22 20 19

GEFSSE_500_meanwind_024.txt.gz
Wind_Speed
11 11 10 10 9 8 7 8 8 9 10 10 11 11 12 12 11 10 9 8 8 9 10 11 12 12 11 8 6 6 6 5 5 4 4 3 4 4 5 5 6 7 7
10 9 8 8 7 6 6 7 8 9 10 11 11 12 12 12 12 12 10 10 10 10 10 11 12 12 11 9 7 6 6 5 5 5 3 2 2 3 4 5 5 5 5
7 6 6 5 5 5 6 6 7 8 9 10 11 12 13 13 14 14 13 12 12 12 12 12 13 12 12 10 8 6 6 6 6 5 4 2 0 1 3 4 4 4 4
6 5 5 6 6 6 7 7 8 8 9 10 11 12 13 14 15 16 16 15 15 15 15 15 14 14 13 11 8 7 6 6 7 6 5 3 2 1 1 2 3 3 3
8 7 7 7 8 8 9 10 11 11 12 12 13 13 14 15 16 17 18 19 19 19 19 18 17 16 14 13 10 8 6 6 7 7 6 4 3 2 2 1 1 2 3
12 11 11 11 11 12 13 14 15 15 16 17 17 18 18 18 19 20 21 21 21 22 21 21 20 19 17 16 14 12 9 8 7 7 7 7 6 4 3 2 2 2 2
15 16 16 16 17 17 17 19 19 20 20 22 22 22 22 22 23 23 24 24 23 23 23 23 23 22 21 20 18 17 15 12 10 9 8 8 8 7 7 6 5 4 3
18 19 19 20 21 22 22 23 23 23 24 25 25 25 26 26 27 27 27 27 26 26 25 25 25 25 24 23 22 22 20 18 16 14 12 11 11 10 10 9 9 8 6
20 21 22 23 23 24 25 26 25 26 26 26 27 28 28 29 29 29 29 29 28 28 27 27 27 27 27 26 26 25 25 23 22 20 18 15 15 14 13 12 12 11 10
22 23 24 25 26 27 27 28 28 28 27 27 28 29 29 31 32 31 31 32 31 30 30 29 29 28 28 28 28 27 27 26 27 25 23 20 20 19 18 17 16 15 14
24 25 26 26 27 28 28 29 29 28 28 29 30 31 31 32 33 33 34 34 34 33 32 31 31 30 29 29 29 28 28 29 29 29 26 24 25 24 23 22 21 20 19
25 26 27 28 28 29 30 29 29 29 29 30 31 32 33 34 34 34 34 34 35 35 35 34 32 31 30 30 29 29 28 30 30 30 29 28 29 28 27 27 26 25 24
26 27 28 30 30 31 32 32 31 32 32 32 33 34 34 34 34 33 33 33 34 36 37 35 33 32 31 30 30 30 29 30 30 31 31 29 30 30 29 29 28 28 28
29 29 31 31 32 33 34 34 34 35 35 35 35 34 33 33 33 33 33 32 33 34 35 35 32 31 30 29 31 30 30 31 31 30 30 28 27 28 28 27 25 25 25
32 32 32 33 34 34 35 35 36 37 38 38 36 34 33 32 31 31 32 32 32 32 33 34 33 32 31 30 30 30 31 31 32 30 28 27 26 26 26 25 23 22 22
34 34 34 34 35 35 36 37 38 39 39 38 36 34 32 31 31 32 31 31 31 32 32 33 33 32 31 31 30 30 30 30 31 32 29 26 25 25 25 23 23 22 20
33 33 34 35 35 37 37 38 39 39 38 36 35 34 33 32 32 32 31 31 31 31 30 31 32 31 31 31 29 28 29 29 30 30 30 28 25 25 24 23 23 22 20
31 32 34 35 36 38 38 38 38 36 35 35 34 34 33 33 33 33 32 32 32 31 29 29 29 29 30 31 30 28 27 28 28 28 29 28 26 26 25 25 24 22 21
29 32 34 36 37 37 36 36 36 35 35 35 35 35 35 35 35 34 34 33 33 31 30 29 29 29 29 30 30 30 29 28 28 29 29 29 27 26 25 24 24 23 21
30 32 34 35 35 35 36 36 36 37 37 37 37 36 36 37 37 37 36 35 34 32 31 30 28 27 27 28 29 29 30 30 29 29 29 27 26 25 24 23 23 22 21
30 31 33 34 35 36 37 38 38 38 39 40 39 38 38 38 39 39 38 37 36 35 33 32 29 28 28 28 29 30 30 30 29 29 29 28 26 25 25 22 21 20 20
31 32 34 35 37 38 39 39 39 39 40 41 41 40 40 39 40 41 40 39 38 37 35 34 32 31 30 29 30 29 30 30 30 29 29 29 28 27 26 23 21 21 20
33 35 35 36 37 38 39 41 41 41 42 43 43 43 42 41 42 43 43 42 41 40 38 37 36 34 32 31 29 29 30 30 29 29 29 29 29 29 28 25 23 22 21
35 36 37 37 38 39 41 43 43 44 44 45 46 46 45 44 44 45 45 45 44 43 42 40 39 38 36 34 31 30 30 30 29 28 29 29 29 29 28 26 24 23 22
35 37 38 39 40 41 42 44 45 46 47 48 49 49 49 48 47 46 46 46 45 45 44 43 42 40 39 37 35 32 31 31 31 30 29 28 29 30 29 27 26 25 24
35 37 39 40 41 41 43 44 46 47 47 48 49 49 49 47 46 44 43 41 40 42 42 43 43 43 42 40 39 37 34 33 32 32 30 30 29 30 30 30 28 27 26

GEFSSE_500_meanwind_030.txt.gz
Wind_Speed
7 7 6 4 3 3 2 2 3 4 4 4 5 5 6 6 7 8 9 11 12 12 13 14 15 16 17 16 14 10 7 6 5 6 6 6 6 5 5 5 6 6 6
7 7 6 5 4 3 3 4 4 5 5 5 6 6 6 6 6 7 8 9 11 12 13 14 15 15 16 15 14 12 9 6 5 5 5 5 5 4 3 4 4 4 5
7 6 6 5 4 4 4 5 6 6 7 7 7 7 7 6 6 7 7 9 10 12 14 15 15 15 15 15 14 13 10 7 5 4 4 3 3 3 3 3 3 3 4
7 6 6 6 5 6 6 7 7 8 8 8 9 9 9 9 8 9 9 10 11 13 14 15 16 16 15 15 14 13 11 8 6 4 2 2 1 2 2 2 3 3 3
6 6 7 7 7 8 8 9 10 10 10 10 11 11 11 12 12 13 13 13 14 14 15 16 17 17 17 16 15 14 12 10 8 5 3 1 0 1 1 2 2 3 3
6 7 8 9 9 10 11 12 12 13 13 13 14 14 14 14 15 15 16 16 17 17 17 18 18 18 18 18 17 15 13 11 9 7 5 3 2 2 2 2 3 3 3
8 9 10 11 12 13 13 14 15 15 15 15 16 16 16 16 16 17 18 19 20 20 20 20 21 21 20 20 19 18 16 14 12 10 8 6 5 4 4 4 3 3 3
10 11 12 13 14 15 16 17 17 17 17 17 17 17 17 18 18 18 18 19 20 21 22 23 23 23 23 22 21 21 19 18 16 15 13 10 9 7 6 5 5 5 5
11 13 14 15 16 17 18 19 19 19 19 19 19 18 19 19 20 21 22 22 22 23 24 24 26 25 25 25 25 24 23 22 20 19 18 15 13 12 10 9 8 7 7
13 14 15 17 18 19 20 21 21 21 22 21 21 21 21 22 23 23 24 24 24 24 25 25 26 27 27 28 28 27 26 25 24 22 22 20 18 16 15 13 12 10 9
16 17 17 18 20 21 21 22 23 23 24 24 23 23 24 24 25 25 25 25 25 25 24 25 26 28 29 29 30 30 28 28 28 26 25 25 23 21 19 18 16 15 13
18 19 20 20 22 23 24 24 24 25 25 26 26 27 27 27 27 27 27 25 25 25 25 24 24 26 28 30 30 30 30 31 30 29 27 27 26 25 23 22 20 19 18
21 21 23 24 25 25 25 25 26 26 27 28 28 29 29 29 28 27 27 26 25 25 26 25 24 25 26 27 29 29 29 31 32 31 30 28 28 28 27 25 23 23 21
24 25 25 26 26 26 26 26 26 27 28 29 30 30 30 30 29 28 27 27 27 26 26 26 25 26 26 27 29 29 29 30 31 31 30 29 29 29 28 26 25 24 23
27 27 27 26 27 27 27 27 27 28 29 30 31 31 31 31 30 28 28 28 28 27 26 26 26 26 25 25 26 27 29 29 29 30 30 30 29 30 29 27 25 25 24
27 28 27 27 27 28 28 29 30 31 32 32 32 32 31 30 29 29 29 29 29 28 27 27 26 25 25 25 25 25 28 29 29 30 31 30 30 30 29 27 25 25 25
25 25 25 26 27 28 30 31 32 34 34 34 34 33 32 31 30 30 30 30 30 30 29 27 27 25 25 24 23 23 24 27 28 30 30 31 31 30 29 27 26 25 25
23 24 25 26 28 30 32 33 35 36 36 36 35 35 34 33 33 32 31 31 31 31 30 29 27 26 25 24 23 24 24 26 27 28 29 30 31 30 29 29 28 26 26
24 25 27 29 31 32 34 35 36 37 37 37 36 36 36 35 34 33 32 32 32 32 31 30 28 26 25 25 23 22 23 24 26 28 29 29 30 30 31 30 29 29 28
25 28 30 31 33 34 36 37 37 38 38 38 37 36 35 35 34 34 34 34 33 33 33 31 29 27 26 25 23 22 22 22 24 26 27 28 28 30 31 31 31 30 30
26 28 31 33 34 36 37 37 38 37 37 37 37 36 35 35 35 35 35 35 35 34 34 33 32 29 28 26 24 23 23 22 22 25 26 27 28 30 30 29 31 31 32
25 28 30 31 33 34 35 35 36 35 35 35 36 35 35 34 35 35 35 36 36 35 35 35 34 32 31 29 27 25 24 23 23 24 26 27 29 30 30 30 31 31 32
23 25 26 28 30 31 32 33 34 34 35 34 35 35 34 33 33 33 33 34 35 35 35 35 35 34 33 32 29 28 26 25 24 24 25 26 27 29 30 30 32 31 32
23 24 26 27 29 30 31 32 33 33 34 34 34 34 35 35 34 34 33 32 32 33 33 34 34 34 34 34 32 31 30 28 27 26 25 25 27 28 30 32 33 32 32
24 25 26 27 28 30 31 32 33 34 34 35 35 35 36 36 36 35 34 32 31 31 31 31 32 33 34 35 35 34 32 31 30 29 27 26 27 28 30 33 34 34 33
27 27 28 29 29 31 32 33 35 35 36 37 37 37 37 37 37 37 35 33 32 31 30 30 30 30 31 33 35 36 36 34 33 32 30 29 28 29 30 32 34 35 35

GEFSSE_500_meanwind_036.txt.gz
Wind_Speed
9 8 7 6 6 7 7 8 8 8 8 7 6 5 4 3 3 3 3 3 4 5 6 7 9 10 11 12 12 11 9 7 5 5 6 6 7 7 7 7 8 8 9
7 6 6 6 6 6 7 7 7 7 7 7 6 6 5 4 4 4 5 5 6 6 7 7 7 8 9 9 10 10 8 6 4 3 4 5 6 6 6 5 6 7 8
5 5 5 5 5 6 6 6 7 7 7 7 7 7 7 7 7 7 8 9 9 10 10 10 9 8 8 7 7 7 7 6 4 2 3 4 5 5 5 5 5 5 7
5 5 5 5 6 6 7 7 8 8 8 9 9 9 10 10 10 10 11 11 12 13 14 14 13 12 11 9 7 6 5 4 3 1 2 4 4 5 5 5 5 5 7
7 6 6 6 7 8 8 8 9 9 10 10 10 11 11 12 12 12 12 13 14 15 16 17 16 16 15 13 11 8 6 4 2 1 2 4 5 5 5 5 5 6 7
9 8 8 8 9 9 10 10 10 11 11 11 11 12 12 13 13 14 14 14 15 16 17 18 18 18 18 17 15 13 10 8 6 4 3 4 6 6 6 5 5 6 7
11 10 10 10 10 11 11 12 12 13 12 12 13 13 13 13 14 14 15 15 16 17 18 18 19 19 20 20 19 17 15 12 10 8 7 6 6 7 7 7 6 6 7
12 11 11 12 12 12 12 12 13 13 13 13 13 14 14 14 15 15 16 17 18 19 20 20 21 21 21 21 21 20 19 17 15 13 11 10 8 8 9 9 8 7 7
12 13 13 13 13 13 13 14 14 14 14 15 15 15 15 16 17 18 19 20 20 21 21 21 21 22 22 22 21 21 21 21 20 18 16 14 13 11 11 11 10 9 8
15 15 15 15 15 15 15 16 16 16 17 17 17 17 18 18 19 20 21 22 22 23 23 22 22 23 23 23 23 23 21 22 23 22 21 19 17 16 14 13 13 12 11
18 19 19 18 18 19 18 18 19 19 19 19 19 20 20 21 21 22 22 23 24 24 23 22 22 21 22 22 23 22 22 22 24 25 24 23 22 21 19 17 16 15 13
21 21 21 21 20 21 21 21 21 22 21 21 21 21 22 22 23 23 24 25 25 24 23 23 23 23 22 22 22 21 21 20 21 24 26 26 26 25 24 22 20 19 17
21 22 23 22 22 23 23 23 24 23 22 23 23 23 23 24 24 24 25 26 26 25 24 23 23 24 23 23 22 20 19 20 21 22 24 26 28 28 28 26 25 23 21
20 21 22 24 25 24 25 25 24 22 22 23 23 24 25 26 26 26 27 27 27 26 25 24 23 24 23 23 22 21 20 19 20 21 24 26 29 30 30 30 29 27 25
19 20 21 23 24 24 24 23 24 23 23 24 26 27 27 27 28 28 28 28 27 27 26 25 24 24 24 24 23 22 21 20 20 21 22 24 28 31 32 32 31 30 29
19 19 20 21 22 24 24 24 25 25 26 27 28 28 28 28 29 29 29 29 29 29 28 27 27 26 26 25 24 24 22 22 22 22 23 24 27 30 32 34 34 33 31
17 18 19 21 23 25 26 26 27 28 28 28 28 29 29 30 31 31 31 31 31 31 30 29 28 28 27 26 25 24 23 22 22 23 24 24 25 28 31 34 35 34 33
18 19 21 22 24 25 26 27 28 28 29 29 29 30 30 31 31 31 31 31 32 31 31 31 30 29 28 27 26 25 24 23 23 24 24 24 25 27 30 33 35 34 33
18 20 21 23 24 26 27 28 29 29 30 29 29 30 30 30 31 31 31 32 32 32 32 32 31 30 30 29 28 27 26 25 23 23 24 25 26 27 30 32 33 34 34
19 20 22 24 25 27 28 28 29 29 30 30 30 30 30 30 31 31 32 32 32 32 33 32 32 31 31 31 30 29 28 26 25 24 24 26 26 27 29 32 33 33 33
19 21 22 24 26 27 28 29 29 29 30 30 30 30 29 29 30 30 31 31 32 33 33 34 33 33 32 32 31 30 30 28 27 26 25 25 26 27 29 31 32 33 34
19 21 23 25 26 27 28 28 29 29 29 29 29 29 29 29 29 29 30 31 31 32 32 33 33 33 33 33 33 32 31 30 29 27 26 26 26 27 28 30 32 33 34
20 21 23 24 26 27 28 29 29 30 30 30 30 30 30 30 30 29 30 31 31 31 32 32 32 33 33 34 34 34 33 33 31 30 28 27 27 27 28 30 31 33 34
18 20 21 23 24 25 26 27 28 29 29 30 31 31 31 31 30 30 30 31 31 31 32 32 32 32 33 34 34 34 34 34 34 33 31 30 29 29 30 30 30 32 34
17 18 20 21 22 23 24 25 26 26 27 28 29 30 30 30 30 30 30 31 31 32 32 32 32 32 33 33 34 34 35 36 36 36 35 34 32 32 31 32 31 32 33
17 19 20 22 22 23 24 25 25 25 26 27 27 28 29 29 30 30 31 31 32 33 33 34 34 34 34 33 33 34 35 37 37 37 38 37 36 34 33 32 33 33 34

GEFSSE_500_meanwind_042.txt.gz
Wind_Speed
6 6 5 4 3 3 3 3 3 3 3 2 2 2 1 1 1 1 1 2 2 2 3 3 3 4 4 4 5 5 4 3 2 2 2 4 5 6 6 7 7 9 9
5 5 3 2 1 2 2 3 3 3 2 2 1 1 2 2 2 3 4 4 4 5 5 6 5 5 4 3 2 3 2 1 1 1 2 4 5 6 6 6 6 7 9
4 4 4 4 4 5 5 5 5 5 4 4 4 4 4 4 5 5 6 6 7 7 8 8 8 8 7 5 3 1 1 0 1 3 3 4 5 6 6 6 5 6 7
5 6 7 7 7 8 8 8 7 7 6 6 6 6 6 6 6 7 7 8 8 9 9 10 10 10 9 8 6 5 3 2 3 4 4 4 5 6 6 6 6 5 7
7 8 9 10 10 10 10 9 9 8 8 7 7 7 7 7 8 8 8 8 8 9 10 10 11 11 11 11 10 9 7 6 5 5 6 6 6 6 6 7 7 6 7
9 10 11 12 12 12 11 11 10 10 9 9 8 8 8 8 9 9 9 9 9 9 9 10 11 12 12 12 12 12 11 11 10 8 8 8 8 7 7 8 8 8 8
10 12 13 13 13 14 14 13 12 11 10 10 10 9 9 9 9 9 10 10 10 11 11 11 12 13 13 13 13 14 14 14 14 13 11 10 10 10 9 9 9 10 10
13 14 15 16 16 15 16 15 15 14 13 12 12 11 11 11 11 11 11 12 12 12 13 13 13 14 14 14 14 14 16 16 17 17 16 14 13 12 12 11 11 11 11
15 17 18 19 19 18 18 18 18 17 16 15 14 14 13 13 13 13 13 13 14 14 14 15 15 15 15 15 15 15 16 18 20 21 20 19 17 16 15 14 13 13 13
18 20 21 22 22 22 21 21 22 21 20 19 19 18 17 16 16 15 14 15 15 15 15 15 15 15 15 16 15 16 15 15 18 22 24 23 22 20 18 17 16 15 15
21 22 23 23 24 25 24 25 25 25 24 23 22 22 20 19 18 17 16 15 16 16 16 16 16 16 16 16 16 14 15 15 16 20 25 26 26 25 23 21 19 18 17
24 24 25 25 26 26 26 26 26 26 25 25 24 23 22 21 21 19 18 18 18 18 18 18 18 17 17 17 17 15 14 14 15 19 23 26 27 28 28 25 23 21 20
24 24 24 25 26 27 26 26 25 24 23 22 22 22 22 23 22 20 21 21 21 21 20 20 20 19 18 18 18 16 15 14 15 17 20 24 27 29 31 30 28 26 24
23 24 24 24 25 24 24 24 22 21 20 21 20 20 20 21 22 22 23 23 23 23 22 22 22 21 20 20 19 18 17 16 16 17 18 22 25 28 31 33 32 31 29
23 23 22 21 21 21 21 21 20 20 20 20 20 20 21 22 23 24 24 25 25 25 25 24 24 23 23 22 21 20 20 19 18 19 19 20 24 27 31 32 35 34 33
21 21 20 19 19 19 19 19 20 20 20 20 21 22 23 24 25 25 26 26 26 26 26 26 26 26 25 24 23 23 22 21 20 20 20 20 22 25 28 33 35 37 36
17 17 16 15 16 17 17 18 19 20 21 22 22 23 24 25 25 26 26 26 26 26 27 27 27 26 26 25 25 25 24 23 22 22 22 22 23 24 27 30 34 37 38
14 14 13 14 15 15 17 18 19 20 20 21 22 22 23 24 24 25 25 25 25 26 26 26 27 27 26 26 26 26 25 25 24 24 24 24 24 24 26 30 33 35 38
11 12 12 13 14 15 16 17 18 19 20 20 21 22 22 23 23 24 24 24 25 25 26 26 26 26 26 26 26 26 26 26 26 26 25 25 25 25 26 29 32 35 37
9 9 10 12 13 14 15 16 17 18 19 19 20 20 21 22 22 23 23 24 25 25 25 25 26 26 26 26 26 27 27 28 28 28 28 27 27 26 26 29 32 34 36
7 8 10 12 13 15 16 17 18 19 19 19 19 20 20 21 21 22 23 23 24 25 25 25 25 25 26 26 27 27 28 29 29 30 30 29 29 28 27 29 31 34 35
7 9 11 13 15 16 17 18 19 20 20 20 20 19 19 20 21 21 22 23 24 24 25 25 25 26 26 26 26 27 28 29 30 31 31 31 31 30 30 30 31 33 34
9 12 13 15 16 18 18 18 19 19 19 19 19 19 18 18 19 20 21 22 23 23 24 24 25 26 27 27 27 27 28 30 30 31 31 32 32 32 31 32 32 33 35
11 13 15 16 17 17 18 18 18 18 18 18 18 17 17 17 17 18 19 19 21 22 23 24 25 26 27 27 28 29 29 30 31 31 31 32 32 33 33 33 34 34 35
13 15 16 16 17 17 17 17 17 18 18 18 18 17 17 17 17 18 18 19 20 22 23 24 25 27 28 29 30 30 31 31 32 33 33 33 33 34 35 35 35 35 36
15 16 16 17 17 17 18 18 18 18 19 19 19 19 18 18 18 19 20 21 22 23 24 26 27 29 30 31 33 33 34 34 35 35 35 36 36 36 36 37 37 37 36

GEFSSE_500_meanwind_048.txt.gz
Wind_Speed
3 3 4 4 4 4 3 4 4 4 4 4 4 4 4 4 4 5 5 6 6 6 6 6 6 6 6 6 6 6 6 5 4 3 3 2 2 3 4 4 5 7 8
3 4 4 4 5 5 6 7 7 7 7 6 6 6 6 6 7 7 7 7 8 8 8 8 8 7 7 7 6 6 5 5 4 3 2 1 0 1 2 3 4 7 8
4 5 5 6 7 8 9 9 9 9 9 9 9 9 9 9 9 9 9 10 10 10 10 9 9 9 8 8 7 6 6 5 4 3 2 2 2 2 2 3 5 7 7
5 6 7 8 9 10 11 11 11 11 11 11 11 11 11 10 10 11 11 11 11 10 10 10 10 10 9 9 8 8 8 7 6 5 4 4 3 3 3 3 4 5 6
6 8 9 10 12 12 12 13 12 12 12 12 12 12 12 11 11 11 12 11 11 11 11 11 10 10 10 10 10 10 10 9 8 7 6 5 4 5 5 4 4 4 5
8 9 10 12 13 14 14 14 14 13 13 12 12 12 12 12 12 11 11 11 11 11 11 11 11 11 11 11 11 11 11 11 11 10 9 8 7 6 7 6 6 5 5
9 11 12 13 14 15 16 16 15 15 14 14 13 13 13 13 13 13 12 12 12 12 12 13 13 13 13 13 13 13 13 13 13 12 12 11 10 9 8 8 7 7 7
11 13 14 15 16 17 18 18 18 17 17 17 16 16 15 15 15 15 15 14 14 14 14 14 14 14 14 14 14 14 14 14 14 14 14 15 14 12 11 10 9 9 8
13 14 16 17 18 19 20 21 21 21 21 20 20 20 19 19 18 18 17 17 17 17 16 16 15 15 15 15 15 15 15 15 15 16 16 18 18 16 14 13 12 11 11
15 16 17 18 20 20 22 22 22 23 23 23 23 23 23 22 21 20 20 19 19 18 17 17 17 16 16 15 15 16 16 16 15 16 18 19 20 20 18 16 14 13 13
17 18 19 19 20 21 22 23 24 24 24 24 24 24 24 24 23 21 19 19 19 19 19 18 18 18 17 17 16 16 16 17 16 16 16 19 21 22 22 20 18 16 15
20 20 21 20 21 22 22 23 24 24 24 23 23 23 21 20 20 19 19 19 19 19 19 18 19 19 19 18 17 17 17 17 17 17 17 18 20 22 23 23 22 20 19
20 21 21 20 20 20 20 22 23 24 23 21 20 19 18 17 17 18 18 18 18 18 19 19 19 19 20 19 18 18 18 18 18 18 17 18 20 22 24 26 25 24 22
20 21 20 20 18 18 19 20 21 20 20 19 19 18 18 17 17 17 18 18 18 18 19 19 20 20 19 18 18 18 17 18 17 17 18 19 20 21 24 26 28 28 27
20 19 19 18 17 18 18 18 18 17 18 18 19 20 20 19 19 19 19 19 20 20 20 20 21 21 21 20 19 18 18 18 18 17 18 19 20 21 23 25 28 30 30
18 18 17 16 16 15 16 17 16 16 17 17 18 19 20 20 20 21 20 20 20 20 20 21 21 21 21 21 20 19 19 19 19 19 19 19 18 19 22 25 28 30 32
16 16 15 14 13 13 13 14 14 15 16 17 17 18 20 20 21 21 21 21 21 21 21 21 22 21 21 21 21 21 21 21 20 20 20 20 20 19 20 24 27 30 32
15 14 12 11 11 11 12 13 14 14 15 16 17 18 20 20 21 21 21 21 22 22 22 22 22 21 21 21 21 22 22 22 22 22 22 22 21 22 21 22 25 28 31
13 12 10 9 9 10 11 12 13 14 15 15 16 17 18 19 20 20 20 21 21 21 21 22 22 22 22 22 22 22 22 23 23 23 23 24 24 23 23 23 25 26 29
9 8 6 7 8 8 10 11 12 13 14 15 15 17 17 18 19 19 19 20 20 20 20 20 21 22 22 22 22 23 23 23 24 24 24 25 25 25 25 25 25 27 28
5 4 4 5 6 8 10 10 11 12 13 14 15 16 17 17 17 18 18 18 18 18 18 19 20 21 21 21 21 22 23 23 24 24 25 25 26 27 26 26 26 28 28
1 2 4 5 6 8 9 10 12 13 14 15 16 16 17 17 17 17 17 17 17 17 17 18 18 19 20 20 21 21 23 24 24 24 25 26 27 28 28 28 28 29 30
1 3 4 6 7 9 10 11 13 14 15 15 16 16 17 17 17 17 17 17 16 16 17 17 18 19 19 20 20 21 22 24 24 24 25 26 27 28 28 29 29 29 31
2 5 6 8 9 10 12 13 15 16 16 17 17 17 18 18 18 18 17 17 17 17 18 18 19 20 20 21 21 21 22 23 24 25 25 26 27 27 28 29 30 30 31
5 7 8 10 11 12 14 15 17 17 18 18 19 19 19 19 18 19 19 19 19 20 20 21 21 21 22 22 23 23 24 25 26 26 27 27 28 28 30 30 30 30 31
7 9 10 11 12 14 15 17 18 19 20 21 22 22 22 21 20 20 21 22 22 22 23 24 24 24 24 25 26 26 26 27 28 29 29 30 31 31 31 32 31 31 31

GEFSSE_500_meanwind_054.txt.gz
Wind_Speed
5 7 7 7 6 6 5 4 3 2 2 3 4 4 5 6 6 7 7 7 8 8 8 8 8 8 8 7 6 6 6 6 6 5 4 4 4 4 4 4 6 7 9
6 6 6 6 5 4 3 2 1 2 2 3 4 5 6 7 7 8 8 8 9 9 9 9 9 9 8 7 6 6 6 6 6 5 4 3 3 3 3 4 6 7 8
5 5 5 5 4 3 2 1 2 3 3 4 5 6 7 7 8 9 9 9 10 10 10 10 10 10 9 7 7 6 5 5 5 4 3 2 1 2 3 4 6 8 8
4 4 4 3 3 2 1 2 2 3 4 5 6 7 8 8 9 10 10 10 11 11 11 11 11 11 10 9 7 7 6 5 5 4 3 2 0 0 1 3 6 8 8
3 3 2 2 2 2 2 2 3 4 5 6 7 8 8 9 10 10 11 11 11 12 12 12 12 12 11 10 9 8 7 6 6 5 4 3 2 2 2 3 5 7 8
3 2 1 1 2 3 4 4 5 6 6 7 8 9 10 10 11 12 12 13 13 13 13 13 13 13 12 11 10 9 8 8 8 7 7 6 4 4 4 4 5 6 7
1 1 2 3 4 5 6 7 7 8 9 10 10 11 11 12 13 14 14 14 15 15 15 14 14 14 14 13 12 11 10 10 9 8 8 8 7 6 6 6 6 7 8
1 3 4 5 7 8 9 10 10 11 12 12 13 14 14 15 16 16 17 17 17 17 17 17 16 16 16 15 14 13 11 10 10 10 10 10 10 9 8 8 8 8 8
3 5 6 7 9 10 11 12 13 14 14 15 16 17 17 18 18 18 19 19 19 19 19 19 19 18 18 17 16 14 12 11 11 11 11 11 11 11 11 11 11 10 10
5 7 8 9 10 12 13 14 15 16 16 18 18 19 19 18 19 19 20 19 19 19 19 19 19 19 19 19 18 16 14 12 12 12 12 12 13 13 13 14 14 13 12
6 8 9 10 11 13 14 16 16 17 17 18 19 19 19 19 18 17 17 17 17 17 17 18 18 18 18 19 19 18 16 13 12 13 13 13 13 14 15 16 16 15 14
8 10 11 12 13 14 15 15 15 16 17 18 18 18 17 16 15 15 15 15 15 15 15 15 16 16 17 18 18 18 17 15 14 13 14 15 14 15 16 17 18 18 17
10 11 12 13 14 14 15 14 14 15 16 17 16 15 15 14 14 15 15 15 15 15 15 15 15 16 17 17 17 17 17 15 15 14 15 15 15 16 17 18 19 20 19
11 12 12 12 13 14 13 13 13 14 14 14 13 13 13 13 13 14 14 15 15 16 15 15 15 16 16 16 17 17 17 16 15 15 15 17 17 16 17 18 19 21 22
10 11 11 12 12 11 11 11 11 11 11 11 11 11 11 12 12 12 13 14 15 15 15 15 15 15 15 16 16 17 17 17 16 16 15 16 17 17 18 18 19 20 22
10 10 10 10 10 8 8 9 8 8 8 9 8 9 9 10 11 12 12 13 13 14 14 14 15 15 16 16 16 17 17 17 17 17 16 16 17 18 19 19 19 21 22
9 8 8 8 7 6 7 7 6 6 7 7 8 8 9 9 9 10 11 12 12 13 13 14 14 15 16 16 16 17 17 17 17 18 18 18 18 18 18 20 21 21 22
7 7 6 6 6 5 5 5 4 5 6 7 7 8 8 9 9 9 9 10 10 11 12 12 13 14 15 16 16 17 17 18 18 18 18 18 19 19 20 20 20 22 23
5 5 4 4 3 3 3 4 4 4 5 6 7 7 8 8 9 9 9 9 10 10 11 12 12 13 14 15 16 16 17 18 18 19 19 19 19 20 21 22 21 22 23
4 3 2 2 1 1 2 3 3 3 4 5 6 7 8 8 8 9 9 9 9 9 9 10 11 12 12 13 14 16 17 17 18 19 19 19 19 20 22 23 23 23 23
4 3 2 2 1 1 2 2 2 3 4 5 6 7 8 9 9 10 9 9 9 9 10 10 11 11 12 12 13 15 16 16 17 18 19 20 21 21 22 23 24 25 25
4 3 2 2 1 0 1 2 2 3 4 6 7 8 9 10 11 11 11 10 10 10 10 11 11 11 11 12 13 14 15 16 17 18 19 20 21 22 23 24 25 26 27
5 4 3 2 1 0 1 2 3 4 5 6 8 9 10 11 11 11 12 12 12 12 12 12 13 13 13 13 14 14 16 16 17 18 19 20 21 22 23 24 25 27 28
4 3 2 1 1 1 2 3 4 5 6 7 8 10 11 12 13 13 13 13 14 14 14 15 15 16 16 16 15 16 16 17 17 18 19 20 21 22 23 24 25 27 28
3 3 2 1 1 2 3 4 4 6 7 8 9 11 12 13 14 14 15 16 16 16 16 16 17 18 18 19 18 18 18 19 19 20 20 21 22 22 23 24 26 27 28
2 2 2 2 2 3 3 4 5 7 8 9 11 12 12 13 14 15 16 17 17 17 18 18 18 19 20 20 21 21 22 22 22 22 23 24 24 24 25 26 27 28 29

GEFSSE_500_meanwind_060.txt.gz
Wind_Speed
5 6 6 6 5 5 6 6 6 5 5 4 2 2 1 2 3 4 4 5 5 6 6 7 7 7 7 7 7 7 7 7 6 6 5 5 5 5 5 6 8 9 11
6 6 6 6 5 5 4 4 4 3 3 2 1 1 1 2 3 4 5 5 6 6 7 7 7 7 7 6 6 6 6 6 5 5 5 5 5 4 5 6 8 10 11
6 6 6 6 5 4 4 3 3 2 2 1 1 2 3 4 4 5 5 6 6 7 7 8 7 7 7 6 6 5 5 5 5 4 4 4 3 4 4 5 7 9 10
7 7 7 6 5 4 3 2 2 1 1 1 3 4 5 5 6 6 6 7 7 7 8 8 8 8 7 6 5 5 5 4 4 3 3 2 2 2 4 5 6 8 9
9 9 8 6 5 3 2 1 0 1 2 3 4 5 6 7 7 8 8 9 9 9 9 9 8 8 8 7 6 5 5 5 4 3 2 1 0 1 3 4 6 8 9
10 9 8 6 5 3 2 1 1 2 3 4 6 7 8 9 9 10 10 11 11 12 12 11 10 9 8 8 7 6 5 5 5 5 3 2 2 2 3 4 5 7 8
12 10 8 6 4 3 2 2 3 4 5 6 8 9 10 11 12 12 13 13 14 14 14 13 12 11 10 9 8 7 7 6 6 6 6 4 4 4 5 5 6 7 8
13 11 8 6 5 4 4 4 5 6 7 9 10 11 12 13 14 15 15 15 16 17 17 16 14 13 12 11 10 9 8 7 7 7 7 7 6 6 7 7 7 7 8
14 11 9 7 6 5 6 7 8 9 10 12 13 13 14 15 16 17 17 17 17 18 17 16 15 14 13 12 10 9 9 8 8 8 8 8 8 8 9 9 9 9 9
14 12 9 8 7 7 8 9 10 11 12 13 14 14 15 16 17 17 17 17 17 17 16 16 16 14 13 12 11 10 10 9 9 9 9 9 9 9 10 10 10 11 11
15 13 10 9 8 9 10 11 12 13 13 14 14 15 16 17 17 16 16 16 15 15 15 16 15 13 13 11 11 10 10 10 10 10 10 10 10 11 11 12 12 13 13
17 15 12 10 9 10 11 12 13 13 13 14 14 15 15 16 16 16 15 15 14 14 14 14 13 13 13 12 12 11 10 10 11 11 10 10 11 12 12 13 14 15 15
19 16 14 11 11 11 12 13 13 13 13 14 14 15 15 15 15 14 13 14 14 14 14 14 14 14 13 12 11 11 11 11 11 11 11 11 11 12 14 14 15 17 17
19 17 14 12 11 11 12 12 12 12 12 13 13 13 13 13 13 12 12 12 12 13 13 13 13 13 13 13 12 11 10 11 11 12 12 12 13 13 14 15 16 17 19
18 17 14 12 11 11 11 10 10 11 11 11 11 11 11 10 10 10 10 10 11 12 12 12 13 13 13 12 12 12 11 11 12 12 12 13 14 14 15 15 17 18 20
18 16 14 12 10 10 9 8 8 9 9 9 8 8 8 8 8 8 9 9 10 10 11 11 11 12 12 13 13 12 12 12 12 12 13 13 13 14 15 16 17 18 19
16 14 13 11 9 7 7 7 7 7 7 7 7 7 7 7 7 7 7 8 8 9 9 10 10 11 11 12 12 13 13 12 12 13 13 14 14 14 15 16 17 19 20
14 13 11 9 8 7 6 6 5 5 5 5 5 5 5 6 6 6 6 6 7 8 8 9 9 9 10 11 12 12 12 13 13 13 13 13 14 15 16 16 17 19 20
14 13 11 9 8 6 5 5 4 3 4 3 3 4 4 5 6 6 6 6 7 7 7 8 8 9 10 10 11 11 11 12 13 13 13 14 14 15 16 17 17 18 20
14 12 10 9 8 6 5 3 3 3 3 3 4 4 5 5 6 6 6 7 7 7 7 7 8 8 9 10 10 11 11 12 12 13 14 14 15 16 17 17 17 18 20
14 12 10 8 7 6 4 3 3 3 3 3 4 4 5 5 6 6 6 7 7 7 7 8 8 9 9 10 10 11 11 12 12 13 13 14 15 16 17 18 19 19 20
13 11 9 8 7 6 4 3 2 3 3 4 4 4 5 5 6 6 7 7 8 8 8 9 9 10 10 10 11 11 11 12 12 13 13 14 15 16 17 18 19 20 21
12 11 10 8 7 6 4 3 3 3 3 3 4 4 5 6 6 7 7 8 9 9 8 8 9 9 10 11 12 13 13 13 13 13 14 15 15 16 18 19 20 21 22
12 10 9 8 6 5 4 4 4 3 3 3 3 4 5 5 6 7 7 8 8 9 9 9 9 9 10 11 13 14 14 15 15 15 15 16 17 17 18 19 20 22 23
11 9 8 7 6 5 5 5 4 4 4 4 4 4 5 6 6 7 7 8 8 8 9 10 10 11 11 12 13 14 15 16 17 17 18 18 19 20 20 20 21 22 23
9 8 7 6 6 6 6 5 5 5 4 4 4 5 5 6 6 7 7 8 8 9 10 11 12 13 13 14 15 16 16 17 18 19 20 20 21 22 23 23 24 24 24

GEFSSE_500_meanwind_066.txt.gz
Wind_Speed
8 7 7 7 8 8 8 7 6 5 4 4 4 3 3 3 2 2 2 2 2 2 3 3 3 3 3 4 4 4 4 4 4 5 5 4 4 4 6 8 10 11 12
9 8 7 8 9 9 8 7 6 5 4 4 3 2 2 1 1 0 0 1 1 1 2 2 2 2 2 2 3 3 3 3 3 4 4 3 4 4 7 9 11 11 11
9 8 8 8 9 9 8 7 6 5 4 4 3 2 2 1 1 1 1 1 1 1 1 2 2 2 1 1 1 2 2 2 2 2 2 2 3 5 7 9 11 11 11
11 10 8 8 8 8 8 7 6 5 5 4 3 3 3 2 2 2 2 2 2 2 2 2 2 2 2 1 1 1 1 1 1 1 1 1 2 4 7 9 10 10 11
11 10 9 8 8 8 7 6 6 5 5 4 4 4 4 3 3 3 3 4 4 4 4 4 4 3 3 3 2 2 2 2 2 1 1 1 2 3 6 8 9 10 10
11 10 10 9 9 8 7 7 6 5 5 4 5 5 4 5 5 5 5 5 6 6 5 5 5 5 5 4 4 4 4 3 3 3 3 2 2 3 6 8 9 10 10
12 11 11 10 9 8 8 7 6 6 6 6 6 6 6 6 6 7 7 7 7 7 7 7 6 6 6 6 6 5 5 5 4 4 4 4 4 4 6 7 9 9 10
14 12 11 11 10 9 8 7 7 7 7 7 7 7 7 7 8 8 8 8 8 9 9 9 8 7 7 7 7 6 6 6 6 5 6 6 6 6 7 8 9 10 10
15 14 13 12 11 10 9 8 8 8 7 7 8 8 8 9 9 10 10 9 9 9 9 9 9 9 8 8 7 8 7 7 7 6 7 7 8 8 8 9 9 10 11
17 15 14 13 13 12 10 9 9 8 8 8 8 9 9 9 10 11 10 9 9 9 9 9 9 9 9 8 8 7 8 7 7 7 8 8 8 9 10 10 10 11 12
19 17 16 15 14 13 12 11 10 9 9 8 8 9 9 10 10 11 10 10 9 9 9 9 9 9 8 7 7 7 7 8 7 7 8 8 9 10 11 12 12 12 13
21 19 18 17 16 14 13 12 10 10 9 9 9 9 9 10 10 10 10 9 9 9 9 9 8 8 7 6 7 7 7 8 8 8 8 8 10 11 12 13 13 13 14
24 22 20 19 18 16 14 12 11 10 9 9 8 9 9 9 9 9 9 9 8 8 9 8 8 7 7 7 7 8 8 8 9 9 9 9 10 11 12 13 14 15 15
24 24 22 20 19 18 15 13 11 9 8 8 8 8 8 8 7 7 7 7 7 7 7 8 7 7 7 7 7 8 8 9 9 9 9 10 11 12 12 13 14 15 16
25 25 23 21 20 18 15 13 10 9 8 7 7 7 6 6 6 6 6 5 5 6 6 6 5 6 6 7 7 8 8 9 9 10 10 11 12 12 13 13 14 15 15
26 25 23 22 20 18 15 12 10 8 8 6 5 5 4 4 4 4 4 4 4 4 4 4 4 5 5 5 6 6 8 9 9 10 10 11 12 13 13 14 15 15 15
26 25 24 21 19 17 14 11 10 9 8 6 4 4 3 3 3 3 4 3 3 3 4 4 4 4 4 4 5 5 7 8 9 10 10 11 11 12 13 14 15 15 15
26 25 24 20 18 15 13 11 9 8 6 5 4 2 2 2 2 3 3 3 3 3 3 3 3 3 3 4 4 4 6 7 8 9 10 11 11 12 13 14 14 15 15
25 24 22 20 18 15 12 11 9 7 6 5 3 2 1 1 2 2 3 3 3 3 3 3 3 3 3 3 4 4 5 6 7 8 9 10 10 12 13 13 14 14 15
24 23 21 18 17 15 12 10 9 7 6 4 3 2 1 1 2 2 2 2 2 3 3 3 3 3 4 4 4 5 5 6 7 8 9 10 11 12 12 13 14 15 15
21 21 19 18 16 14 12 10 8 6 5 4 3 2 2 1 1 1 2 2 2 2 3 3 3 3 4 4 4 5 5 6 7 8 10 11 12 13 13 14 14 15 16
19 19 18 17 15 13 12 9 7 6 5 4 3 3 2 2 1 0 1 2 2 2 2 3 3 3 3 3 4 4 5 6 7 8 9 10 11 12 13 14 15 15 16
17 17 17 16 14 13 11 9 8 6 5 4 4 3 3 2 1 0 0 1 1 2 3 3 3 3 4 4 5 5 6 7 8 8 9 11 12 12 13 14 15 16 17
16 17 16 15 13 11 10 9 7 6 5 5 4 4 3 2 2 1 1 0 0 1 2 3 4 4 5 6 6 7 7 8 9 10 11 12 13 13 14 16 16 17 17
15 15 14 12 11 10 9 8 7 6 5 5 5 4 4 3 3 2 2 2 2 2 3 4 5 6 7 8 8 9 9 10 11 12 13 14 14 15 16 17 18 19 19
12 12 12 11 10 9 9 8 7 6 6 6 6 5 5 5 4 4 4 4 4 5 6 7 7 8 9 10 11 11 12 13 14 15 15 15 15 16 17 18 19 20 21

GEFSSE_500_meanwind_072.txt.gz
Wind_Speed
7 7 7 6 6 5 5 5 5 5 4 3 3 3 2 2 1 1 1 1 1 1 2 2 3 3 4 4 4 4 4 5 5 5 5 4 4 4 5 7 9 11 12
8 8 7 7 6 6 5 5 6 6 5 4 4 3 3 3 2 2 2 2 2 2 2 2 2 2 3 3 3 3 4 4 5 5 5 4 4 4 6 9 10 12 12
9 8 8 8 7 6 6 6 7 7 6 5 5 5 4 4 4 4 4 4 4 3 3 3 3 3 3 3 3 3 3 3 4 4 4 4 3 4 6 8 10 11 11
10 9 9 8 7 7 7 7 7 7 7 6 6 6 5 5 5 5 4 4 4 4 4 4 4 4 4 4 4 3 3 3 3 3 2 2 3 3 5 8 9 9 10
11 10 9 9 8 7 7 7 7 7 7 7 7 6 6 6 6 5 5 5 5 6 6 5 5 5 5 5 5 5 4 3 3 3 3 1 2 3 5 7 8 8 9
12 11 10 9 9 8 8 8 8 7 7 7 7 6 6 6 6 6 7 7 7 7 7 7 6 7 7 7 7 6 5 4 4 4 3 1 1 2 4 6 6 7 8
13 12 11 10 9 9 9 9 8 7 7 7 7 7 7 7 8 8 8 8 9 9 9 9 8 8 8 8 8 8 7 6 5 4 4 3 2 2 4 5 6 7 7
14 13 12 11 10 10 9 9 8 8 8 8 8 8 8 8 9 9 9 9 9 10 9 9 9 9 9 9 9 9 8 7 7 6 6 5 4 3 4 6 6 7 7
15 14 14 13 12 11 10 10 9 9 9 9 9 9 9 10 9 9 10 10 10 10 9 9 9 9 9 9 9 9 9 8 7 6 7 6 6 5 5 6 7 8 9
16 17 15 15 13 12 12 11 10 10 10 10 10 10 10 10 10 10 10 10 10 9 9 9 8 8 8 9 9 9 9 9 8 7 7 7 7 7 7 7 7 9 10
19 18 17 16 15 13 13 13 11 11 11 11 11 11 11 10 10 10 10 9 9 9 9 9 9 9 9 8 8 8 8 9 8 8 8 6 7 8 8 8 9 9 10
21 21 19 18 16 14 14 13 12 12 12 12 12 11 11 10 10 10 9 9 8 8 8 9 9 9 9 8 8 8 8 8 8 8 8 8 8 8 8 9 10 11 11
23 22 22 19 17 15 15 14 13 13 12 12 12 11 10 10 10 9 8 8 7 7 7 8 8 8 7 8 8 7 8 8 8 9 9 8 8 8 8 9 11 12 12
24 24 23 20 19 18 16 15 14 14 13 12 10 10 10 9 9 8 7 7 6 6 6 6 6 6 6 6 7 7 7 8 8 8 9 9 8 9 9 9 10 12 13
26 25 24 23 22 20 18 16 15 14 12 11 10 9 8 8 7 7 6 6 5 5 6 5 5 5 5 5 6 7 7 7 7 7 9 8 8 9 9 9 10 12 13
25 25 25 24 23 20 17 15 14 12 11 10 9 8 7 6 5 5 5 5 5 5 5 4 4 3 3 3 3 5 6 6 6 6 6 7 7 8 9 10 10 10 12
25 25 25 24 22 18 16 14 12 11 10 9 8 7 5 4 4 4 4 4 4 4 3 3 3 3 2 1 1 2 2 4 6 5 5 6 6 7 8 9 9 10 11
25 25 24 22 20 17 15 13 12 11 10 9 7 6 5 4 3 3 3 3 3 3 3 2 2 2 2 2 1 1 1 2 4 4 4 5 5 6 7 8 9 9 10
24 24 23 22 19 17 15 13 12 10 10 8 7 6 4 3 3 3 3 2 3 3 2 2 1 1 1 2 2 2 2 3 4 4 4 5 5 6 7 7 8 9 9
21 22 21 19 18 16 15 13 11 10 9 9 7 6 5 3 2 2 2 2 2 2 2 2 3 3 2 2 2 2 3 3 4 4 5 5 6 6 7 7 8 9 9
19 20 19 17 16 15 14 13 11 10 9 8 6 6 4 3 2 1 0 2 2 2 2 3 4 4 4 4 4 4 3 4 4 4 5 5 6 7 7 8 9 9 9
17 17 17 17 17 15 14 11 10 10 9 8 6 5 4 4 3 2 1 1 2 3 3 3 4 4 4 4 4 5 5 4 4 5 6 6 7 8 9 9 10 10 10
15 16 15 14 14 14 13 11 10 9 8 7 6 6 5 4 3 3 2 1 1 1 2 2 3 3 4 4 5 5 5 5 6 6 7 8 8 9 10 10 11 11 11
11 13 13 14 14 14 13 11 11 10 8 7 7 6 6 5 5 4 3 2 2 1 0 2 2 3 3 4 5 6 6 6 7 7 9 9 10 11 11 11 12 12 13
10 11 12 14 13 12 11 11 11 10 9 8 8 7 7 6 6 5 5 4 3 3 3 3 4 4 5 6 7 8 8 9 9 10 10 11 11 12 12 13 13 13 14
8 10 11 12 12 12 12 11 11 10 10 9 8 8 7 7 7 7 7 6 6 6 6 6 7 7 8 8 9 10 11 11 12 13 14 13 13 13 14 14 15 15 15

GEFSSE_500_meanwind_078.txt.gz
Wind_Speed
6 6 5 5 4 4 3 2 1 1 2 3 3 4 4 4 4 4 4 4 4 5 5 5 5 5 5 4 4 4 4 4 5 5 4 3 3 5 6 8 8 9 9
7 6 6 6 5 5 4 3 2 2 2 3 4 4 5 5 5 5 5 6 6 6 6 6 6 5 5 5 4 4 3 4 4 4 4 3 4 5 7 8 9 9 9
8 7 7 7 6 6 5 4 3 2 3 4 4 5 5 6 6 7 7 7 7 7 7 7 6 6 6 6 5 4 3 3 3 4 3 3 4 5 7 9 9 9 9
8 8 8 8 7 6 5 4 4 3 3 4 5 6 6 7 8 7 8 8 8 8 8 8 7 7 7 7 6 5 4 3 2 2 3 4 5 6 7 9 10 9 9
9 9 9 9 8 7 6 5 4 4 4 5 6 6 7 8 8 8 8 8 9 9 9 9 8 8 8 7 7 6 5 4 2 1 2 3 4 5 7 8 9 9 9
10 10 10 10 9 8 7 6 5 4 5 5 6 6 7 7 8 8 9 9 10 10 10 10 9 9 9 8 8 6 6 4 3 2 1 2 4 5 6 7 8 8 9
10 11 11 11 10 9 8 7 6 5 5 5 6 6 7 8 9 9 10 10 10 10 11 11 10 10 10 9 8 7 6 5 4 4 3 3 5 5 7 8 8 9 9
11 11 12 12 11 10 9 8 6 5 6 6 6 7 8 8 9 10 10 10 10 11 11 11 11 11 10 10 8 8 7 7 6 5 5 6 6 6 7 8 9 9 10
13 13 13 13 13 11 9 8 7 6 6 6 7 8 8 9 9 10 10 10 10 10 10 10 10 10 10 10 9 8 8 8 7 6 6 7 7 8 8 9 9 9 10
13 14 15 15 14 12 10 8 7 7 7 7 7 8 8 9 10 10 10 10 10 9 9 9 10 10 10 10 9 8 8 8 8 7 7 7 7 8 9 9 10 10 10
14 15 16 16 15 13 11 9 9 8 8 8 8 8 9 9 10 10 9 9 9 8 8 8 9 10 10 10 9 8 7 8 8 9 8 7 7 8 9 9 9 10 10
15 16 17 17 16 14 12 11 10 9 9 8 8 8 9 9 9 9 8 8 8 8 8 8 8 9 10 10 9 8 7 7 7 7 7 6 6 7 8 9 9 10 11
19 19 19 19 18 16 14 12 11 11 10 9 8 8 9 8 8 8 7 7 7 7 7 7 8 8 9 9 9 8 7 7 6 6 5 5 6 6 7 8 8 9 10
20 20 21 23 21 18 16 13 11 11 10 9 8 8 8 8 7 6 6 5 6 6 6 6 7 7 7 7 7 7 6 6 6 5 5 6 6 6 6 6 7 8 9
20 20 20 23 22 20 17 14 12 11 11 9 8 8 8 7 6 5 5 5 5 5 5 5 5 6 6 5 5 5 5 5 6 5 4 4 5 5 5 5 6 7 8
20 21 22 23 23 21 18 16 14 13 11 10 8 8 7 6 5 5 4 4 3 3 3 3 3 3 4 4 3 3 3 4 4 4 3 3 3 4 4 5 6 6 7
18 21 22 23 23 21 19 16 15 14 12 9 8 7 6 5 4 3 3 3 3 2 2 2 2 2 2 2 2 1 1 2 2 3 2 2 2 3 4 5 5 5 6
17 19 21 22 21 20 18 16 15 13 11 10 8 7 6 5 4 2 2 2 1 1 1 1 1 1 1 1 0 1 1 1 1 2 1 1 1 1 3 4 4 4 5
16 20 20 21 20 19 18 16 15 13 12 10 9 7 6 5 4 3 2 1 1 1 1 1 1 2 1 1 1 1 1 2 2 1 1 1 1 2 2 3 3 4 5
14 18 20 20 20 19 18 17 15 13 12 10 9 8 7 6 5 4 3 2 2 2 3 3 3 3 3 3 2 2 2 2 2 2 2 1 1 1 0 1 2 3 4
14 15 19 19 19 18 17 17 15 14 12 11 10 9 8 7 6 5 4 4 4 4 5 5 5 5 4 4 4 4 3 3 3 2 1 1 1 1 1 2 2 3 4
12 14 17 18 18 17 17 16 15 13 12 11 11 10 9 8 7 6 6 5 5 5 5 5 5 5 4 4 3 3 3 3 3 2 2 2 2 2 2 3 3 4 5
9 11 14 18 16 16 16 15 14 13 12 11 11 11 10 9 8 8 7 7 6 6 5 5 4 4 4 3 3 3 2 2 2 2 2 2 3 3 3 3 4 5 5
8 11 13 16 17 17 16 15 14 14 13 12 12 11 11 10 9 9 8 8 7 6 5 4 3 3 3 2 2 1 1 0 1 2 2 3 4 4 4 4 5 5 6
8 11 12 14 17 17 16 15 14 14 13 13 12 12 11 11 11 11 10 9 8 7 6 5 4 3 3 3 2 2 2 3 4 4 5 5 5 5 5 6 6 7 8
7 9 11 14 15 16 15 15 14 14 14 13 13 13 12 12 12 12 12 11 10 9 8 7 6 6 6 5 5 5 6 6 7 8 8 8 8 7 7 7 8 9 10

GEFSSE_500_meanwind_084.txt.gz
Wind_Speed
8 7 7 8 8 7 7 7 7 6 5 4 2 2 3 4 5 6 6 7 7 7 7 8 7 7 7 7 7 7 6 6 5 5 4 4 5 6 7 8 8 8 9
9 10 10 9 9 8 8 7 7 6 5 3 2 1 3 4 5 5 6 7 7 7 8 8 7 7 7 7 7 6 6 6 5 4 4 4 5 6 6 7 7 8 9
11 12 12 11 10 10 9 8 7 5 4 2 1 1 2 4 5 5 6 7 7 8 8 8 8 7 7 7 6 6 6 5 5 4 3 4 5 6 6 7 7 8 8
12 13 13 12 12 11 10 8 7 5 4 2 1 1 2 4 5 5 6 7 8 8 8 8 8 7 7 6 6 5 5 5 4 3 3 4 5 5 7 7 7 8 8
11 13 14 14 13 12 11 9 7 6 4 2 1 1 3 5 6 6 7 8 8 9 8 8 8 8 7 6 6 5 4 4 2 2 2 3 4 5 7 7 8 8 8
12 13 15 15 14 13 11 10 8 7 4 2 1 2 3 5 6 7 8 8 8 9 9 9 8 7 7 7 6 5 4 3 2 1 1 2 3 4 6 7 8 8 8
13 14 16 16 15 13 12 10 9 7 5 3 1 2 3 5 6 8 8 8 9 9 9 9 8 7 7 7 6 4 3 3 2 1 1 2 3 4 5 7 8 8 8
14 16 17 16 15 14 12 10 9 7 5 3 2 2 4 5 7 8 8 8 9 9 9 8 7 7 6 6 6 5 4 3 3 2 2 3 3 4 5 7 7 7 8
16 17 17 16 16 15 13 11 9 7 5 3 3 3 5 6 7 8 8 8 9 8 8 7 7 6 6 6 5 5 4 4 3 3 3 4 4 5 6 7 7 8 8
17 17 17 16 16 16 14 12 10 8 6 4 4 4 5 6 7 8 9 9 8 8 7 6 6 6 6 6 5 5 5 5 4 4 4 4 5 6 7 7 8 8 9
17 18 17 17 17 16 15 13 10 8 7 5 5 5 6 7 8 9 9 9 8 7 6 5 5 5 6 6 6 6 5 5 4 4 5 5 6 7 8 8 8 9 9
17 18 18 18 18 17 15 13 11 9 8 7 6 6 6 7 8 8 8 8 8 7 6 5 4 5 5 5 6 6 6 5 5 5 5 6 7 8 9 10 9 10 10
18 19 19 19 19 18 16 15 13 11 9 8 7 6 7 7 7 7 8 8 7 6 5 5 4 5 5 5 5 5 5 5 5 5 5 6 7 9 10 10 11 11 11
19 21 21 21 20 19 18 16 14 13 11 9 8 7 7 7 7 7 7 7 6 6 5 4 4 4 3 3 4 4 5 6 6 6 6 6 7 8 9 10 11 11 11
19 22 22 22 22 20 19 18 16 14 12 10 9 8 8 7 7 7 8 7 6 5 4 4 3 3 3 2 3 3 4 5 6 5 6 6 8 8 8 9 10 11 11
18 22 23 24 23 22 21 20 18 16 13 11 10 9 8 7 7 7 7 6 5 4 4 3 3 2 1 1 1 2 4 4 5 6 6 6 7 7 8 9 9 10 11
16 23 25 25 24 24 23 22 20 17 15 13 11 9 8 8 7 7 6 5 4 4 3 3 2 1 0 0 0 1 3 3 5 5 6 6 6 6 7 8 8 9 10
14 21 25 25 24 24 23 22 21 18 15 13 11 10 9 8 7 6 6 5 4 3 2 1 1 1 1 1 1 1 1 2 4 5 6 5 5 5 6 7 8 8 9
14 19 22 24 24 24 24 23 20 18 16 14 12 11 9 8 7 6 5 5 4 3 2 0 0 1 2 2 2 2 2 3 4 5 5 5 4 4 5 5 6 7 8
13 18 22 24 25 25 24 23 20 18 16 15 13 11 10 9 7 6 5 4 3 2 1 1 1 2 3 3 3 3 4 4 4 4 4 4 4 3 3 4 5 6 6
15 19 21 23 25 25 24 22 20 19 17 15 13 12 11 10 8 7 6 5 4 3 2 2 2 3 3 3 3 4 4 4 4 4 4 3 3 2 2 3 4 5 6
13 18 20 22 23 23 23 22 21 20 17 15 14 13 12 10 9 9 8 7 5 4 3 3 3 3 4 4 3 3 3 3 3 3 3 3 2 1 2 3 4 4 5
13 15 18 21 21 22 23 22 21 19 17 16 15 13 12 11 10 10 9 8 7 6 5 4 4 4 4 4 3 3 2 2 2 2 2 1 1 2 3 3 4 4 5
11 13 17 19 21 22 22 21 20 19 17 17 15 14 13 12 12 11 10 9 8 7 6 5 4 4 4 4 3 3 3 3 2 2 2 2 3 3 4 5 5 6 6
8 11 15 18 20 21 21 21 20 18 17 16 15 14 13 13 13 12 11 10 10 9 8 7 6 5 5 5 4 4 4 4 4 4 4 4 5 6 6 7 7 8 8
6 10 13 16 18 20 20 19 18 17 16 16 15 14 13 13 13 13 12 12 11 11 11 10 9 9 8 8 8 7 7 8 8 8 8 8 8 8 9 10 10 10 11

GEFSSE_500_meanwind_090.txt.gz
Wind_Speed
12 12 11 11 10 10 10 10 10 9 9 8 7 6 5 5 5 4 4 5 5 5 5 4 4 4 4 4 4 3 3 3 2 3 5 6 7 8 7 8 9 9 9
12 13 13 12 11 11 11 11 11 10 9 8 7 6 5 4 4 4 4 4 4 4 4 3 3 3 3 3 3 3 3 2 2 3 5 6 8 8 8 8 9 9 9
13 14 14 13 12 12 12 12 11 11 9 8 7 6 4 3 3 3 3 3 3 3 3 2 2 2 2 2 2 2 2 2 3 3 5 7 7 8 8 8 9 9 9
13 14 14 14 13 13 13 13 12 11 9 8 7 6 4 3 2 2 2 2 2 2 2 2 1 1 1 1 1 2 2 2 3 4 5 6 7 7 8 8 9 8 9
13 15 15 15 14 14 14 14 13 11 10 8 7 5 4 3 2 1 1 1 1 1 1 1 1 0 0 1 1 2 2 3 4 4 5 6 6 6 7 8 9 9 8
13 15 16 16 15 14 14 14 13 12 10 8 7 5 4 2 2 1 1 1 1 1 1 1 1 0 0 1 1 2 3 3 4 4 5 6 6 6 7 7 8 8 8
13 15 16 16 16 15 15 14 14 13 11 9 8 6 4 3 2 1 0 1 1 2 2 1 1 0 1 1 2 3 3 4 4 5 5 6 6 7 7 8 8 8 8
13 16 17 16 16 17 16 15 14 13 11 10 8 6 4 2 1 0 0 1 1 2 2 1 1 1 1 2 2 3 4 4 5 5 6 6 7 7 8 9 9 9 8
13 16 17 17 17 17 17 16 15 14 12 11 9 6 4 2 1 1 1 2 2 2 2 1 1 1 2 2 2 3 3 4 5 6 7 8 8 8 9 9 10 9 9
14 16 18 19 18 18 18 17 15 14 13 11 8 6 4 3 2 1 1 2 2 2 2 2 2 2 2 3 3 3 4 5 6 7 8 8 8 9 10 10 10 10 10
14 17 18 19 19 19 19 18 16 15 13 11 8 6 5 3 2 2 2 2 2 2 2 2 3 2 3 3 4 4 4 5 6 7 8 9 9 10 10 11 11 11 10
15 17 19 19 20 19 19 19 18 16 14 11 9 6 5 3 3 2 2 2 2 2 3 3 4 3 4 4 4 5 5 5 6 7 8 9 10 11 11 12 12 12 11
14 18 20 21 21 21 20 20 19 17 15 12 10 7 5 4 4 3 2 1 2 2 3 3 4 4 4 4 4 5 5 6 7 7 8 9 10 10 11 12 12 12 12
14 18 21 22 22 22 22 21 19 18 15 13 10 8 6 5 4 3 2 2 2 2 2 3 3 4 4 5 5 5 5 6 7 7 8 8 9 10 11 12 12 12 12
15 18 21 23 22 23 23 22 20 18 16 14 11 9 6 5 4 4 3 2 2 2 2 2 3 4 4 4 4 4 5 5 7 7 8 8 9 9 9 11 11 12 13
15 18 21 23 24 24 24 23 21 19 16 15 12 9 7 6 5 4 3 2 2 2 2 2 3 3 3 3 3 4 4 5 5 6 7 7 7 8 8 9 10 11 12
14 17 21 24 25 25 25 25 23 20 18 15 13 11 8 7 6 5 4 3 2 2 2 2 2 3 2 2 2 3 3 5 5 6 6 6 7 6 7 8 8 9 11
14 17 21 25 25 26 26 26 24 22 19 16 14 12 9 8 6 5 4 3 3 2 2 2 2 2 2 2 2 2 3 4 5 6 6 6 7 7 6 7 7 8 9
13 16 20 25 25 26 27 26 25 22 19 17 15 12 10 8 7 5 4 4 3 3 3 2 2 2 1 1 1 1 1 2 3 5 5 6 6 6 6 6 6 7 8
12 15 19 23 25 25 26 26 24 22 20 18 16 14 11 9 8 6 5 4 3 3 3 3 3 2 2 1 1 1 1 1 1 2 3 4 5 5 4 4 5 6 8
10 13 19 21 24 25 25 25 23 21 20 18 16 14 12 11 9 7 5 4 4 4 3 3 3 3 3 2 2 2 2 1 1 1 2 3 3 3 4 4 5 6 7
9 13 16 20 23 25 25 24 23 20 19 18 16 15 13 12 10 8 7 6 5 5 4 4 4 4 3 3 3 2 1 1 1 1 1 2 2 3 4 5 5 6 7
8 12 16 19 21 23 23 23 22 20 19 18 17 15 14 12 10 9 8 8 7 6 6 5 5 5 4 4 4 3 2 1 2 2 2 3 4 4 5 6 6 7 7
7 11 14 17 20 22 23 22 21 20 20 18 17 16 15 13 11 11 10 9 8 8 7 7 6 6 5 5 4 4 4 4 4 3 4 4 4 5 6 7 7 8 8
6 10 13 15 18 20 21 21 21 20 20 18 17 17 16 14 12 12 11 11 10 10 9 9 8 8 7 6 6 6 6 6 6 6 6 6 7 7 8 8 9 10 10
4 8 11 13 16 18 18 19 19 20 19 19 18 17 16 14 13 13 13 12 12 11 11 11 10 10 10 9 9 9 9 9 9 9 10 10 10 10 11 11 12 12 13

GEFSSE_500_meanwind_096.txt.gz
Wind_Speed
9 10 10 11 11 10 9 8 7 6 6 6 5 4 3 3 2 2 2 2 2 2 1 1 1 1 1 1 2 2 2 2 1 2 3 4 6 6 6 7 8 9 10
10 11 11 11 11 11 10 9 8 7 7 7 6 5 4 3 2 1 1 0 0 1 1 0 0 0 1 1 1 1 1 1 0 1 3 5 5 5 6 7 8 9 9
11 12 12 12 12 11 10 10 8 8 8 8 7 6 5 4 3 2 1 1 1 1 0 1 1 1 1 1 2 2 1 1 1 2 4 5 5 5 6 6 8 9 9
12 12 13 13 13 12 11 10 9 9 9 8 8 7 6 5 4 3 2 2 2 2 1 2 2 2 2 2 2 2 1 1 1 2 3 4 5 5 6 6 7 8 8
12 13 13 14 14 14 12 11 10 10 9 9 8 8 7 6 5 4 3 3 3 3 2 2 2 2 2 2 2 2 2 2 2 2 3 4 4 5 5 5 6 7 7
13 14 14 14 15 14 13 12 11 11 10 10 9 8 7 6 6 5 4 3 3 3 3 3 3 3 3 3 3 2 2 2 2 3 4 4 4 4 5 6 6 7 7
13 14 14 15 15 15 14 13 12 12 11 10 9 9 8 6 6 5 4 4 4 4 4 3 3 3 3 3 3 3 3 3 4 4 4 4 4 4 5 6 6 7 7
13 14 15 15 16 16 16 14 13 12 11 10 10 9 8 6 6 5 5 4 4 4 4 4 3 3 3 3 3 3 3 4 4 4 5 5 4 4 5 6 6 7 7
12 14 14 15 16 16 16 15 14 13 12 11 10 9 8 7 6 6 5 5 5 4 4 4 3 3 3 3 3 3 4 4 5 5 5 5 4 4 5 6 7 7 7
11 14 14 15 17 17 16 16 15 14 13 12 10 9 8 7 6 6 5 5 5 4 4 4 3 3 3 3 4 4 4 4 4 5 6 5 5 5 6 6 7 8 7
13 14 15 16 18 17 16 16 16 15 13 12 11 9 8 7 6 6 5 5 5 4 4 4 4 4 4 4 4 5 5 4 4 5 6 6 6 6 6 6 7 8 8
13 14 15 17 18 17 17 17 16 16 14 13 11 10 9 7 7 6 6 5 4 4 4 4 4 4 4 4 4 5 5 4 4 4 6 6 5 6 7 7 8 8 8
11 14 15 16 17 18 18 17 17 17 15 13 12 11 9 8 7 6 6 5 4 5 4 4 4 4 4 4 4 4 5 4 3 4 5 6 6 6 7 8 9 9 10
13 14 16 17 18 19 19 18 18 17 15 14 12 11 9 7 7 6 6 5 5 5 4 3 3 3 3 3 4 4 5 5 4 4 5 5 5 6 7 8 8 9 10
13 14 16 17 18 17 18 19 18 17 15 14 12 10 9 7 7 6 6 5 5 4 3 2 2 2 2 3 3 4 4 5 4 4 4 5 5 6 6 7 8 8 10
13 13 15 16 18 19 20 20 18 16 15 13 12 10 9 8 7 7 6 5 3 3 2 2 2 2 2 2 2 3 3 3 4 4 4 4 5 6 6 6 7 7 8
14 14 15 16 18 19 20 20 19 16 15 14 12 11 9 8 7 6 5 5 3 3 3 2 2 2 1 1 2 2 3 3 3 4 4 3 4 4 5 6 6 6 7
14 15 14 14 16 16 18 19 18 17 16 15 13 12 10 9 7 6 5 5 4 3 3 2 2 2 1 1 1 1 2 2 2 3 4 3 3 3 3 4 4 5 5
13 14 14 13 15 15 16 18 17 17 16 15 13 12 11 10 8 7 6 5 5 4 3 2 2 2 1 1 1 1 1 1 1 1 2 2 2 2 2 3 3 4 4
11 12 13 13 15 16 16 18 18 17 17 16 14 13 12 11 9 8 7 6 5 4 3 2 2 1 0 1 1 1 2 3 3 2 1 1 0 0 2 2 2 3 3
9 10 11 13 14 15 15 16 18 18 17 16 15 13 12 11 10 9 7 6 5 5 4 3 2 1 1 1 1 2 3 4 4 4 3 2 2 2 1 2 2 3 3
9 9 10 11 13 14 16 16 18 19 17 16 15 14 13 12 10 10 8 7 6 5 4 3 2 2 1 1 1 1 2 2 3 3 3 3 2 2 2 2 2 3 3
8 8 10 9 10 13 15 16 17 18 17 15 15 14 14 13 12 11 10 8 7 7 5 4 3 3 3 2 1 0 0 1 2 2 2 2 2 3 3 3 3 4 4
7 7 9 9 10 12 14 16 17 17 17 16 15 14 14 14 14 13 11 10 9 8 7 6 5 5 4 4 3 3 3 3 3 3 4 4 4 4 5 4 5 5 6
7 7 7 8 10 11 12 15 16 17 17 16 15 15 15 15 14 13 12 11 10 10 9 8 8 7 6 6 6 6 6 6 6 6 6 6 7 7 7 7 7 8 8
6 5 5 7 9 10 11 13 15 17 17 16 16 16 16 15 15 15 14 12 12 11 11 10 10 10 9 9 9 9 10 10 10 10 10 10 10 10 11 11 11 11 11

GEFSSE_500_meanwind_102.txt.gz
Wind_Speed
3 4 6 7 6 6 5 4 3 2 1 2 3 4 5 5 4 4 4 4 4 4 4 4 3 3 3 2 2 2 2 2 2 2 3 4 4 6 6 7 7 8 9
4 5 6 6 7 7 6 5 4 3 2 3 4 5 5 5 5 5 5 5 4 4 4 4 3 3 3 2 2 2 2 1 1 2 3 4 5 6 6 7 7 8 9
4 6 7 7 7 7 7 7 5 4 4 4 4 5 5 5 5 5 5 5 5 5 5 4 4 3 3 3 2 2 1 1 2 2 3 4 5 6 6 7 8 8 8
4 7 8 8 8 8 8 8 7 6 5 4 4 5 6 6 6 6 6 6 5 5 5 5 4 4 4 3 2 2 1 1 2 2 3 4 5 6 6 7 8 8 8
5 6 8 9 10 9 9 9 8 7 6 5 5 5 6 6 6 6 6 6 6 6 6 5 5 4 4 3 2 2 1 0 1 2 3 4 5 6 7 7 7 7 7
5 6 8 9 10 10 10 10 9 9 7 6 5 6 6 7 6 6 6 6 6 6 6 5 5 4 4 3 2 1 1 0 1 2 3 4 5 6 7 7 7 7 7
6 7 8 9 11 11 11 11 10 9 8 7 6 6 6 6 6 6 6 6 6 6 5 5 5 4 3 3 2 1 1 1 1 2 3 4 5 6 6 6 6 7 8
6 8 8 10 11 12 12 12 12 10 9 8 7 7 6 7 6 6 6 6 6 6 5 5 4 4 3 2 2 2 2 2 3 3 3 4 4 5 6 6 6 7 7
7 9 9 10 12 12 13 13 13 12 10 9 8 7 7 7 7 6 6 6 6 6 5 4 4 3 3 2 2 2 2 2 3 4 4 4 4 5 6 6 7 7 7
7 8 8 10 12 12 13 14 14 13 11 10 8 7 7 7 7 6 6 6 6 5 5 4 4 3 3 2 2 2 2 3 3 3 4 4 5 5 6 7 7 7 7
6 7 9 10 12 13 14 15 14 13 12 11 9 8 7 6 6 6 6 6 5 5 4 4 4 3 3 3 2 2 2 3 3 4 4 4 5 6 6 7 8 8 7
5 7 9 10 12 14 15 16 15 14 13 11 10 8 8 7 7 6 6 6 5 4 4 4 4 3 2 2 2 2 3 2 3 4 4 5 5 6 7 7 8 8 8
7 7 9 11 12 14 16 17 16 15 14 12 11 9 8 7 7 6 6 6 5 5 4 4 3 3 2 1 2 2 2 2 2 2 4 4 5 5 6 7 7 7 8
6 6 10 11 13 14 15 17 16 16 14 13 11 10 9 8 7 6 6 5 5 4 4 3 3 2 1 1 2 2 3 2 2 1 2 4 4 5 6 7 7 7 8
5 7 8 10 12 13 14 16 17 17 16 14 12 11 9 8 7 6 5 5 4 3 3 2 2 1 1 1 2 2 2 2 2 2 2 3 4 4 5 6 6 7 8
7 7 8 9 12 13 14 16 17 16 16 15 13 12 10 9 7 6 5 4 4 3 2 1 1 1 1 1 1 1 2 2 2 2 3 3 3 4 5 5 5 6 7
8 7 7 8 10 13 14 16 17 16 16 16 15 13 11 10 8 7 5 4 3 2 2 2 1 1 1 1 1 1 2 2 2 3 3 3 3 3 4 5 5 6 6
9 6 6 8 9 11 14 16 17 17 17 16 15 14 12 10 9 7 5 4 3 3 3 2 2 1 1 1 1 1 1 2 3 3 4 4 3 3 4 5 5 5 5
9 8 6 8 8 10 13 15 17 17 17 17 16 15 13 11 9 7 5 5 4 4 3 3 3 2 2 2 1 1 2 2 2 3 3 4 4 3 4 4 4 4 4
9 7 6 7 8 10 12 13 16 17 18 17 16 16 14 12 10 8 6 6 5 4 4 4 3 3 3 2 2 3 3 3 2 3 3 3 4 4 4 3 3 3 3
9 5 5 6 8 10 11 14 15 16 18 17 17 16 15 13 12 10 8 7 6 6 5 4 4 4 4 4 4 4 4 3 3 3 3 3 3 3 3 3 3 3 3
8 5 4 5 6 8 10 13 14 16 18 18 18 17 15 14 13 11 9 8 8 7 7 6 6 5 5 4 4 4 4 4 4 3 3 3 3 3 3 2 2 2 2
8 5 5 4 6 7 8 10 13 16 18 18 17 17 16 15 14 12 11 10 9 9 8 8 7 7 6 5 5 4 3 3 2 2 2 2 1 1 1 1 1 2 3
8 4 3 4 6 7 9 10 13 16 17 18 18 17 16 16 15 14 12 12 11 10 10 9 8 8 7 7 6 5 4 3 2 1 1 1 2 2 2 2 3 3 4
8 5 3 4 5 7 9 11 14 15 17 18 18 17 17 16 16 15 13 13 13 12 11 11 10 9 9 8 7 6 5 5 5 4 4 4 5 5 5 5 5 5 6
7 3 2 3 4 6 9 11 14 15 16 18 18 17 17 17 16 15 14 14 14 14 13 12 11 11 10 10 10 9 9 8 8 8 7 7 8 8 8 8 8 9 10

GEFSSE_500_meanwind_108.txt.gz
Wind_Speed
4 5 5 6 6 6 6 6 7 7 7 7 7 7 7 6 6 6 7 7 7 7 6 6 5 5 5 4 4 4 4 4 4 4 4 5 6 6 6 6 7 7 7
4 5 6 6 6 6 6 6 6 6 6 6 7 6 6 6 6 6 6 6 6 6 6 6 6 5 5 4 4 4 3 3 4 4 4 5 6 6 6 6 6 6 7
4 5 6 7 7 7 6 6 6 6 5 5 5 5 5 5 5 5 6 6 6 6 6 6 6 5 5 4 4 3 3 2 3 4 4 4 5 5 5 6 6 7 7
5 6 7 8 8 7 6 6 5 5 4 4 4 4 5 5 5 5 6 6 6 6 6 6 6 5 4 4 3 3 3 3 3 3 3 4 5 5 5 6 6 6 6
4 6 8 9 8 8 7 6 6 5 4 3 3 3 4 4 5 5 5 5 5 6 6 5 5 4 4 3 3 3 3 3 3 3 3 4 5 5 6 6 6 6 6
4 7 9 10 9 9 8 8 7 5 4 3 2 2 3 4 4 5 5 5 5 5 5 5 4 4 3 2 2 2 3 2 2 3 3 4 4 5 5 5 5 6 6
4 7 9 10 11 10 10 9 8 6 5 3 2 1 2 3 4 4 5 5 5 5 5 5 4 4 3 2 2 1 2 2 2 2 3 4 4 5 5 5 5 5 5
5 8 10 11 12 11 11 10 9 7 6 4 3 1 1 2 3 4 4 5 5 4 4 4 4 3 2 1 1 1 1 2 1 2 3 4 4 4 5 5 5 5 5
7 8 9 11 13 13 11 11 10 9 7 5 4 2 1 2 3 4 4 5 5 4 3 3 3 3 2 1 1 0 0 1 1 2 3 4 4 5 5 5 5 5 5
6 8 9 11 12 12 12 11 10 10 8 6 5 3 2 2 3 3 4 4 4 4 3 3 3 2 2 1 0 0 0 1 1 2 4 4 5 5 6 6 6 6 5
6 8 8 10 12 13 13 12 11 11 9 8 6 5 3 2 2 3 3 4 4 3 3 3 3 2 2 1 0 0 1 2 2 3 4 4 5 6 6 6 6 6 6
6 7 8 10 11 13 14 13 12 12 11 9 8 6 4 3 3 3 3 3 3 3 3 2 3 2 2 1 1 0 1 2 3 3 4 4 5 6 6 6 6 7 7
6 8 8 9 10 12 14 14 14 13 12 11 9 7 6 4 3 3 3 3 3 3 2 2 2 2 2 1 1 1 1 2 2 3 4 5 5 6 6 6 7 7 7
7 7 9 10 11 12 13 14 15 14 14 13 11 9 7 5 4 4 4 3 3 2 2 2 2 2 2 1 2 1 2 2 3 3 3 4 5 5 6 6 7 7 8
7 8 10 11 13 14 14 14 15 15 15 14 12 10 8 6 5 5 4 3 2 2 2 1 1 1 2 2 2 2 2 3 3 3 3 4 4 5 6 6 7 8 8
7 8 10 12 13 14 15 16 18 17 16 15 13 11 9 8 6 5 4 3 2 2 1 1 1 2 2 1 2 2 3 3 3 3 3 4 4 5 5 6 7 7 8
8 7 8 11 13 14 15 16 18 19 18 16 14 12 11 9 7 5 4 3 3 3 2 2 2 2 1 2 2 2 3 3 3 3 4 4 4 5 5 6 7 7 8
9 6 7 8 11 13 15 17 18 18 17 16 15 14 12 10 8 6 5 5 4 4 3 2 2 2 2 2 2 2 2 2 2 3 3 4 4 5 5 6 7 7 8
9 6 7 8 11 14 16 17 18 18 17 16 16 15 13 12 10 8 7 6 5 5 4 3 3 3 2 2 2 2 2 2 2 2 2 3 4 4 4 5 5 6 7
9 7 7 9 12 14 14 16 17 17 16 17 16 15 14 13 12 10 8 7 6 6 5 4 4 4 3 3 2 2 2 2 2 2 2 2 3 4 4 4 4 4 5
9 7 7 8 12 14 15 15 16 16 16 17 16 16 15 15 13 11 10 8 7 7 6 5 5 4 4 3 3 3 3 2 1 2 2 2 2 3 3 4 4 4 4
9 8 8 8 10 13 14 15 17 17 17 18 18 17 16 16 14 13 12 10 9 8 7 7 6 5 5 4 4 4 3 2 2 2 2 2 1 1 2 3 3 4 5
10 7 7 6 8 11 13 14 15 16 17 17 17 17 17 16 15 14 13 12 10 10 9 8 7 7 6 5 5 4 4 3 2 2 1 1 1 2 2 3 4 4 4
10 7 6 5 7 8 10 13 13 15 16 18 18 18 18 17 17 15 14 13 12 12 11 10 9 8 8 7 6 6 5 4 4 3 3 3 3 4 4 4 5 6 6
9 7 5 3 6 7 9 10 12 14 17 18 18 18 18 18 17 17 15 15 14 14 13 12 11 10 10 9 8 8 8 7 7 6 6 6 6 6 6 7 7 8 9
9 6 3 3 5 5 7 9 11 12 15 17 18 17 18 18 18 17 17 16 16 15 14 13 13 13 12 12 11 11 10 10 10 10 10 10 10 10 10 10 11 11 12

GEFSSE_500_meanwind_114.txt.gz
Wind_Speed
9 11 11 11 11 10 10 9 10 10 11 11 11 11 11 10 10 10 9 9 8 8 7 6 5 5 4 5 5 5 4 5 5 5 6 7 7 8 8 8 9 9 10
8 9 10 10 10 10 10 9 9 9 10 10 10 10 10 9 9 8 8 8 7 7 6 6 5 5 4 4 4 4 4 5 6 5 6 6 7 8 8 8 9 9 10
7 8 9 10 10 10 10 10 10 9 9 10 10 10 9 8 8 7 7 7 6 6 5 5 5 4 4 4 4 4 4 5 6 6 6 6 7 8 8 8 8 8 9
6 8 9 10 10 10 10 10 10 9 9 9 9 9 8 8 7 6 6 6 5 5 5 4 4 4 4 4 4 4 4 4 6 6 6 6 6 7 8 8 8 8 8
6 7 9 10 11 11 10 10 10 10 9 9 9 8 8 7 6 6 5 5 5 4 4 4 4 4 4 4 4 4 4 4 5 6 6 6 6 6 8 8 8 8 7
5 7 8 10 11 11 11 11 11 10 9 9 8 8 7 6 6 5 5 4 4 4 3 3 3 3 3 4 4 4 4 4 5 5 6 6 6 6 7 8 8 7 7
5 6 8 10 11 12 13 12 12 10 9 9 8 7 7 6 5 5 4 4 3 3 3 3 3 3 3 4 4 4 4 4 4 5 6 6 6 6 7 7 7 7 6
5 6 9 11 12 13 13 13 12 11 10 9 8 8 7 6 5 4 3 3 3 3 3 2 2 2 2 3 3 4 4 4 4 5 6 6 6 6 7 7 7 6 6
5 7 8 11 13 13 14 14 13 12 11 10 9 8 7 6 5 4 3 2 3 3 2 2 2 2 2 3 3 3 3 4 4 5 6 6 6 6 6 6 7 6 6
6 7 9 11 13 14 14 14 14 13 12 10 10 9 8 6 5 4 3 2 2 2 2 2 2 2 2 3 3 3 3 4 4 5 6 6 6 6 6 6 7 6 6
5 7 9 11 12 13 14 15 15 14 13 11 10 9 8 7 5 4 3 3 2 2 2 1 2 2 2 2 2 2 2 3 4 5 6 6 7 7 7 7 7 7 6
5 6 8 10 13 14 15 15 15 15 14 12 11 10 8 7 5 4 4 3 2 2 1 1 1 1 2 2 3 2 2 3 3 4 5 6 7 7 7 7 7 7 6
6 8 9 10 13 14 15 16 15 15 14 13 12 11 9 7 6 5 4 3 3 2 2 1 1 2 2 3 3 3 2 3 3 3 4 5 6 7 7 7 7 7 6
7 7 9 11 13 14 15 16 16 16 15 15 14 12 10 8 7 5 4 4 3 2 2 2 1 2 3 3 3 3 3 3 3 3 3 4 6 7 6 6 6 7 7
7 7 8 11 14 15 16 17 18 17 17 16 14 13 11 9 8 6 5 5 4 3 2 2 2 2 3 3 4 3 3 3 3 3 3 4 5 6 6 5 5 6 7
8 7 8 10 13 15 16 18 17 17 17 16 15 13 12 10 9 8 7 6 5 4 3 2 2 3 3 4 4 4 3 4 3 3 3 3 4 5 5 5 5 6 6
9 8 7 9 12 15 16 18 18 17 17 17 16 15 13 11 9 9 8 7 6 5 4 3 2 3 3 3 4 4 4 4 4 3 3 3 3 4 4 5 5 6 6
10 9 8 8 11 14 16 17 18 19 19 18 18 16 14 12 10 10 9 8 7 6 5 3 3 3 3 3 3 4 4 4 4 4 4 4 4 4 4 4 5 6 6
10 9 7 7 9 13 16 17 18 19 19 19 18 17 15 13 12 11 10 8 7 7 6 5 4 4 3 3 4 4 4 4 4 4 4 4 4 4 4 5 5 6 6
10 8 6 6 8 11 14 16 17 18 18 18 18 18 16 15 13 12 10 9 8 7 7 6 5 5 4 4 4 4 4 3 3 4 3 3 3 4 4 5 5 5 6
10 9 7 7 8 10 13 15 16 18 18 18 18 18 17 16 14 13 12 10 9 9 8 7 6 6 5 5 4 4 3 3 3 4 4 3 3 3 4 4 4 4 5
10 9 8 7 7 9 12 14 16 18 17 17 18 18 17 16 15 14 13 12 11 10 9 8 7 7 6 6 5 5 4 4 4 4 4 3 3 3 3 3 4 4 5
10 9 8 7 7 8 11 13 16 18 17 16 17 18 17 17 16 15 14 13 12 11 10 9 9 8 8 7 7 6 6 5 4 4 4 4 3 4 4 4 5 6 6
10 9 8 7 6 8 11 12 13 15 17 17 17 17 17 17 17 16 15 14 13 12 12 11 10 10 9 9 9 8 7 6 6 5 5 5 5 5 6 6 7 7 8
10 9 7 6 6 7 9 12 13 14 16 16 17 18 17 17 17 17 16 16 15 14 13 12 12 11 11 11 10 9 9 8 8 7 7 7 8 8 8 9 10 10 11
9 8 6 5 5 6 7 10 11 13 15 15 15 17 17 17 17 18 17 17 16 16 15 14 14 13 13 13 12 12 11 10 10 10 11 11 11 12 12 13 13 14 14

GEFSSE_500_meanwind_120.txt.gz
Wind_Speed
5 7 8 10 10 11 10 9 9 9 8 7 7 7 7 7 6 6 6 6 5 5 4 4 4 4 3 3 3 3 3 3 4 4 5 6 6 7 7 8 9 10 10
5 7 8 9 10 10 10 9 9 9 8 7 7 7 7 7 6 5 5 5 5 4 4 4 3 3 3 2 2 2 2 3 3 3 4 5 6 6 7 8 9 9 9
5 7 8 9 9 9 9 9 8 8 7 7 7 7 7 6 5 5 4 4 4 4 3 3 3 3 2 2 2 2 2 2 3 3 4 5 5 6 6 8 8 8 8
6 7 7 8 9 9 9 9 8 8 8 7 7 7 6 6 5 4 4 3 3 3 3 3 2 2 2 2 1 1 1 2 2 3 4 4 5 5 5 7 8 8 8
5 7 7 8 9 9 9 9 9 8 8 8 7 7 6 5 4 4 4 3 2 2 2 2 2 2 2 2 2 1 2 2 2 3 3 4 4 4 5 6 7 7 7
6 7 7 9 10 10 10 10 10 9 8 8 7 7 6 6 5 4 4 3 2 2 1 1 1 1 1 2 2 2 2 2 2 3 3 4 4 4 5 6 6 6 6
4 6 8 9 10 10 11 11 10 10 9 8 8 7 6 6 5 4 4 3 2 1 1 1 1 1 1 2 2 2 2 2 2 3 3 3 4 4 4 5 5 5 5
4 6 7 9 9 11 12 12 11 10 10 9 8 8 7 6 5 4 4 3 2 2 1 1 1 1 2 2 2 2 2 1 1 3 3 3 3 3 4 4 4 4 4
4 5 6 8 10 11 12 12 12 11 10 10 9 8 7 6 6 5 4 3 2 2 1 1 1 1 1 2 1 2 2 1 1 2 3 3 3 3 3 4 4 4 4
4 5 6 8 10 11 12 13 13 13 12 11 10 9 8 7 6 6 5 3 3 2 2 2 1 1 2 2 2 2 2 1 1 2 3 3 3 3 3 3 3 4 4
5 6 7 8 9 11 13 14 14 13 13 12 11 9 9 8 7 6 5 4 3 3 3 2 1 1 2 2 2 2 2 1 1 1 3 3 3 3 3 3 3 4 4
6 7 7 8 10 11 13 14 15 15 14 12 11 10 9 8 7 5 4 4 4 3 3 2 2 2 2 2 2 2 2 1 1 1 2 3 3 3 3 3 3 4 4
8 8 8 8 10 11 13 14 15 16 15 13 12 11 10 8 7 6 5 4 4 3 3 2 2 2 3 3 3 2 2 1 0 1 2 3 4 4 4 4 4 4 4
9 9 9 9 9 10 13 14 15 16 15 14 13 12 11 9 7 6 5 4 4 3 3 2 2 3 4 4 3 2 1 1 1 1 2 2 3 3 4 5 5 5 5
11 10 9 9 9 10 12 14 15 16 15 14 13 12 11 9 8 7 6 5 4 4 3 3 3 3 4 4 3 3 2 2 1 1 1 2 3 3 3 5 5 5 5
12 11 10 9 8 9 12 14 15 16 16 15 14 13 12 11 10 8 7 5 5 4 4 3 3 3 3 3 3 3 3 2 2 1 1 1 2 2 3 3 4 4 4
13 12 10 9 7 8 11 13 15 16 15 15 14 13 12 12 11 9 7 6 5 4 4 3 3 2 3 3 2 2 3 2 2 2 1 1 1 2 2 2 3 4 4
13 13 11 9 7 7 9 12 14 15 15 15 15 14 13 12 11 9 8 7 6 5 4 4 3 2 3 2 2 2 2 2 2 1 1 1 1 1 2 2 3 3 4
14 13 12 9 7 5 7 10 12 15 15 15 15 14 13 12 11 10 9 8 7 6 5 4 4 3 3 2 2 2 2 3 2 2 1 1 1 1 2 2 3 3 3
14 13 12 10 7 6 7 10 11 13 14 15 15 13 13 12 11 10 9 9 8 7 6 5 5 4 4 3 2 2 2 2 2 2 2 2 1 2 2 2 3 3 4
14 13 12 10 8 7 7 9 11 13 14 14 14 14 13 13 12 11 10 9 9 8 8 7 6 6 5 4 4 3 3 3 2 2 2 2 2 2 2 2 3 3 3
13 12 12 11 9 7 7 7 9 11 14 14 14 13 14 14 13 12 11 10 10 9 9 8 8 7 6 6 5 5 4 3 3 3 3 3 3 2 3 3 3 3 3
13 13 13 11 9 7 6 6 8 10 13 15 14 14 14 15 15 14 13 11 11 10 10 10 9 9 8 7 7 6 5 5 4 4 4 4 4 4 4 4 4 4 4
14 13 13 11 8 7 6 6 7 9 10 13 14 14 15 15 14 14 14 13 12 12 11 11 11 10 9 9 9 8 7 7 6 6 6 6 5 5 5 6 6 6 7
13 13 13 11 9 7 6 6 7 8 9 11 13 14 15 15 14 14 15 15 14 13 13 13 12 12 11 11 10 10 10 9 9 9 9 8 8 8 8 8 9 9 9
13 13 12 11 8 6 6 6 7 8 8 9 11 13 14 14 15 15 15 16 15 15 14 14 14 13 13 12 12 12 12 11 11 11 11 11 11 11 12 12 13 13 13

GEFSSE_500_meanwind_126.txt.gz
Wind_Speed
5 6 6 8 9 8 6 5 4 3 2 1 1 1 1 1 1 1 1 2 2 2 2 3 3 3 3 4 4 4 4 5 5 5 5 6 6 7 7 8 8 8 8
5 6 6 7 8 8 7 5 4 3 2 1 0 0 1 2 2 2 2 1 1 1 2 2 2 2 3 4 4 4 4 4 5 5 6 6 6 6 7 7 8 8 8
4 6 6 6 7 8 7 6 5 3 2 2 1 1 2 2 2 2 2 2 2 1 1 1 2 2 2 3 3 3 3 4 5 5 6 6 6 6 7 7 7 7 7
4 5 6 6 7 7 7 6 5 4 3 3 2 2 2 2 3 3 3 2 2 1 1 1 1 2 2 2 3 3 3 4 4 5 5 6 6 6 6 7 7 7 7
3 4 5 7 7 7 7 7 5 5 4 3 3 2 3 3 3 3 3 3 2 1 1 1 1 1 1 2 2 3 3 4 4 4 5 6 6 6 6 7 7 7 6
2 4 6 7 8 8 8 7 6 5 5 4 3 3 3 4 4 4 3 3 2 2 1 1 1 1 1 1 2 2 3 3 3 4 5 6 6 6 6 7 7 6 6
2 2 4 5 7 8 7 7 7 6 6 5 4 3 3 3 4 4 3 3 3 2 2 2 1 1 1 1 2 2 2 2 3 4 5 5 5 5 6 6 6 5 5
1 2 4 5 6 8 8 8 8 8 7 6 5 4 4 4 4 4 4 3 3 2 2 2 1 0 1 1 1 1 1 1 2 3 4 4 5 5 5 6 6 5 5
1 1 4 5 7 8 9 9 9 9 8 7 6 5 4 4 4 4 4 4 3 3 2 2 1 0 1 1 1 1 1 1 2 3 4 4 4 4 5 5 5 5 5
3 2 3 5 6 8 9 10 10 10 9 8 7 6 5 4 4 4 4 4 3 3 3 2 1 1 1 2 1 2 2 2 3 3 4 4 4 4 4 5 5 4 4
4 3 3 4 6 7 10 11 11 11 11 10 8 6 5 5 4 4 4 4 4 3 3 3 2 2 2 2 2 2 2 3 3 3 4 4 4 4 4 4 4 4 5
6 4 3 5 6 7 10 11 12 12 11 10 9 7 6 5 4 3 3 3 3 3 3 2 2 2 3 3 3 2 2 2 2 2 3 4 4 5 4 4 4 4 4
8 6 5 5 7 8 10 12 13 12 12 11 10 8 7 5 4 3 3 3 3 3 2 2 2 2 3 3 3 3 3 2 2 2 3 3 4 5 4 4 4 4 4
9 8 7 6 6 7 9 12 12 13 12 12 11 10 8 6 5 4 3 3 3 3 2 2 2 2 2 3 3 3 2 2 2 2 3 3 4 4 4 4 4 4 4
9 8 8 6 6 6 7 10 11 12 13 13 12 11 9 8 6 5 4 4 3 3 3 2 2 2 2 2 2 2 2 2 2 2 3 3 4 4 4 3 4 4 4
10 9 8 6 4 5 6 8 11 13 14 13 13 12 10 9 7 5 4 3 3 2 2 2 2 2 2 2 2 2 2 3 2 2 2 3 3 3 4 3 3 3 3
11 10 9 6 4 3 4 7 11 13 14 14 14 13 11 10 8 6 5 4 3 3 2 3 2 2 2 2 3 3 3 3 2 2 2 2 2 3 3 3 3 3 3
11 10 10 8 6 3 3 5 9 13 14 15 14 14 12 11 9 7 6 5 4 3 3 3 3 3 3 3 3 3 3 3 2 2 2 2 3 3 3 3 3 3 3
11 10 10 9 6 5 3 5 8 11 13 15 14 14 12 11 9 8 6 6 5 4 4 4 3 3 3 3 2 3 3 3 3 3 3 3 3 2 2 3 3 3 3
11 11 10 9 7 5 4 4 7 9 13 13 13 14 13 12 10 8 7 6 6 6 5 5 4 4 4 3 3 3 3 3 3 3 3 3 3 3 3 3 3 4 4
11 10 10 9 7 5 4 4 6 8 12 13 13 14 14 12 11 9 8 7 7 7 7 6 6 6 5 5 5 5 5 4 4 3 4 4 3 3 3 3 3 4 4
10 10 10 9 7 5 4 3 5 7 10 11 13 14 14 13 12 11 9 9 8 8 8 7 7 7 7 7 7 6 6 6 6 5 5 5 5 4 4 4 4 4 4
10 10 10 8 7 6 5 2 4 7 9 10 12 14 14 13 13 11 10 10 9 9 9 9 9 9 9 9 8 8 7 7 7 6 6 6 5 6 6 6 6 5 6
9 9 10 9 7 6 4 3 3 7 9 10 12 13 13 13 12 12 11 11 10 11 10 10 10 10 10 10 10 9 9 9 8 8 8 8 8 8 8 7 7 7 7
9 9 10 9 7 6 5 4 5 7 9 10 10 11 12 12 12 13 12 12 12 12 12 11 11 11 11 11 11 11 11 10 10 9 9 9 9 10 9 9 8 9 10
10 10 10 8 7 6 5 4 5 6 8 9 9 10 11 12 13 13 13 13 13 13 13 12 11 12 12 12 12 12 12 12 11 11 11 11 11 11 11 11 12 12 12

GEFSSE_500_meanwind_132.txt.gz
Wind_Speed
6 5 5 6 6 7 9 9 9 10 10 10 10 9 9 9 8 8 8 7 7 6 6 6 6 6 6 6 5 5 5 5 5 5 6 6 6 7 7 7 8 8 8
5 5 5 6 6 7 8 9 9 9 9 9 9 9 8 8 8 8 7 7 6 6 5 5 6 5 5 5 5 5 5 5 5 5 6 6 7 7 7 7 7 7 7
4 5 5 5 6 7 7 7 8 8 8 8 8 8 8 7 7 7 7 7 6 5 5 5 5 5 5 5 4 4 4 5 5 5 5 5 6 6 6 6 7 7 7
3 3 4 5 5 6 6 6 7 7 7 7 7 7 7 7 7 7 6 6 5 5 4 5 5 5 4 4 4 4 4 4 5 5 5 5 5 5 5 6 6 6 6
2 3 4 5 5 5 5 5 5 5 6 6 6 6 6 6 7 7 6 5 5 4 4 4 4 4 4 4 4 3 3 4 4 4 5 5 5 5 5 5 5 5 6
1 3 4 4 4 5 4 4 4 4 4 5 4 5 5 6 6 6 6 5 4 4 3 3 3 4 3 3 3 3 3 4 4 4 4 4 4 4 4 4 5 5 5
2 2 3 4 5 5 4 4 3 3 4 4 3 4 4 5 5 5 5 5 4 3 3 3 3 3 3 3 3 3 3 3 3 4 4 4 4 3 3 3 4 4 3
2 1 2 3 4 4 4 4 4 4 3 3 2 2 3 3 4 4 4 4 4 3 3 3 2 2 2 2 3 2 2 2 2 3 3 3 3 3 3 3 3 3 2
2 1 1 2 3 4 4 4 5 4 3 2 2 2 2 2 3 3 3 3 3 3 3 2 2 1 1 1 2 1 1 2 2 2 3 3 2 2 2 3 2 2 1
2 1 0 2 3 4 5 5 5 5 5 3 2 2 1 2 2 2 3 2 2 2 2 2 1 1 1 1 1 1 1 2 2 2 2 2 2 2 2 2 2 2 1
3 1 2 2 3 4 5 6 6 6 6 5 4 3 2 1 1 1 2 2 2 2 2 1 1 0 1 1 1 1 1 1 1 1 2 3 2 2 2 2 2 2 2
5 3 2 2 3 4 5 6 7 7 6 6 6 5 3 2 1 0 1 1 1 1 1 1 0 0 1 1 1 1 1 1 1 1 2 2 2 2 2 2 2 3 3
6 5 3 3 4 4 5 6 8 8 8 7 7 6 5 3 2 1 0 1 1 1 1 1 1 1 1 1 1 1 1 1 1 1 1 2 2 3 3 3 3 3 3
7 6 5 5 3 4 6 7 8 9 10 9 8 7 6 5 4 2 1 1 0 1 1 1 1 1 1 1 2 1 1 1 1 2 2 2 2 3 3 4 4 4 4
8 7 6 5 4 4 6 7 9 10 10 10 10 9 8 7 5 4 2 2 1 1 1 1 1 1 1 1 1 2 2 1 2 2 3 3 3 3 3 4 4 4 4
8 8 7 6 4 3 6 8 10 11 11 11 11 10 10 8 6 5 3 3 2 1 1 1 2 2 2 2 2 2 2 2 2 3 3 3 3 3 3 3 4 4 5
8 8 8 7 4 3 5 7 9 10 11 12 12 12 11 9 7 6 4 4 3 3 3 2 2 3 3 2 2 2 2 2 2 2 3 3 3 4 4 4 4 4 5
9 8 9 9 5 3 5 7 9 10 12 13 13 13 12 10 9 7 6 5 4 4 4 3 3 3 3 3 2 2 3 3 3 3 3 3 3 3 3 4 4 4 5
9 9 9 8 6 4 3 5 8 10 11 13 13 13 13 12 10 9 8 7 6 5 5 4 4 4 3 3 3 3 3 3 3 3 3 3 3 3 4 4 4 5 5
9 9 9 7 6 5 4 5 6 9 11 12 13 13 13 13 12 10 9 9 7 7 6 5 5 5 4 4 3 3 3 4 4 4 4 4 4 4 4 5 5 5 5
10 9 9 8 6 4 4 5 6 9 10 11 12 14 14 13 13 11 11 10 9 8 7 7 6 6 5 5 5 5 5 5 5 5 4 5 5 5 6 6 6 6 6
10 9 10 8 7 4 3 5 6 8 10 11 11 13 14 14 14 13 12 11 10 9 8 8 8 7 7 7 7 7 6 6 6 6 6 6 6 7 7 7 7 7 7
10 9 9 8 7 5 4 4 5 7 10 12 12 14 14 14 14 14 13 12 11 10 10 9 9 9 9 8 8 8 8 8 8 8 8 8 8 8 9 8 8 8 8
9 9 9 8 7 6 5 4 5 7 9 11 13 14 14 15 15 15 14 14 13 12 11 11 11 11 10 10 10 10 10 10 10 10 10 9 9 9 9 9 10 10 10
9 8 8 8 7 5 5 5 5 6 9 10 13 14 15 16 16 16 16 15 15 14 12 12 12 12 12 12 12 12 12 12 12 12 12 12 12 11 11 12 11 12 12
9 8 8 7 7 6 5 5 5 6 8 9 12 14 14 15 15 16 16 15 15 14 14 14 14 14 14 14 14 14 14 14 14 14 14 14 14 14 14 14 14 14 14

GEFSSE_500_meanwind_138.txt.gz
Wind_Speed
8 8 9 8 9 10 11 12 12 12 13 14 14 13 13 12 12 11 11 10 10 9 8 8 7 7 6 6 6 5 5 5 6 6 6 7 7 8 8 9 8 8 9
9 9 9 9 9 10 11 11 11 12 11 12 13 13 12 12 11 11 10 10 9 8 8 7 7 7 6 5 5 5 5 5 6 6 6 7 7 7 8 8 7 8 8
8 8 9 9 9 10 10 10 10 11 11 12 12 12 11 11 10 10 10 9 8 7 7 7 7 6 6 5 5 5 5 5 5 6 6 6 7 7 7 7 7 8 8
7 7 8 8 9 9 9 10 10 11 11 11 11 11 10 10 9 9 8 8 8 7 6 7 6 6 5 5 5 5 5 5 5 6 5 6 6 6 6 7 7 7 7
7 7 8 8 8 9 9 9 10 10 10 10 10 10 9 9 8 8 8 7 7 7 6 7 6 5 5 5 5 6 5 5 5 6 5 5 5 5 6 6 6 6 6
6 7 7 7 8 8 9 9 9 10 10 9 9 9 9 8 8 8 7 7 6 6 6 6 6 5 5 5 5 5 5 5 5 5 5 5 5 5 5 5 5 5 6
5 6 6 6 7 8 8 9 9 9 9 9 9 8 8 7 7 7 7 7 6 6 6 5 5 5 5 5 5 5 5 4 4 4 4 4 5 4 4 4 4 4 4
4 4 5 6 7 7 7 8 9 9 9 9 8 8 8 7 7 7 6 6 6 6 5 5 4 4 5 5 5 4 4 4 3 3 4 4 4 3 3 3 3 3 3
3 2 3 5 6 6 7 8 9 9 9 9 8 8 8 7 7 6 6 5 5 5 5 4 4 4 4 4 4 3 4 3 3 3 3 3 3 3 3 3 3 3 3
3 2 2 4 5 5 6 7 8 8 9 9 8 8 7 7 6 5 5 5 5 5 4 4 4 4 4 4 3 3 3 3 3 3 3 3 3 3 2 3 2 2 2
3 1 1 3 4 4 6 7 8 8 9 9 9 8 8 7 6 5 5 5 5 4 4 4 4 4 4 3 3 3 3 3 3 3 3 3 3 2 2 2 2 2 1
4 3 0 2 4 4 6 7 8 8 9 9 9 9 8 7 6 5 4 5 5 5 4 4 4 4 4 3 3 3 2 3 3 3 3 3 2 2 2 2 2 1 1
5 4 2 1 3 4 6 8 8 8 10 10 9 9 9 8 7 5 4 5 5 4 4 4 4 4 4 3 3 2 2 3 2 2 2 2 2 2 1 2 2 2 1
5 5 4 3 4 3 5 7 8 9 10 10 10 10 9 8 7 6 5 5 5 4 4 4 4 4 3 3 2 2 2 2 2 2 2 2 2 2 2 2 2 2 2
5 6 5 5 4 4 5 7 8 9 10 10 10 10 10 9 8 6 5 5 4 4 4 5 4 4 3 3 2 2 2 2 2 2 2 2 2 2 2 2 3 3 3
6 6 5 5 4 5 6 6 8 10 11 11 11 11 11 10 8 7 5 5 5 4 4 5 5 4 4 3 3 2 2 2 2 2 2 2 2 2 2 3 3 3 3
7 7 6 6 5 5 6 6 8 10 11 12 11 12 11 11 9 8 6 6 5 5 4 4 4 4 4 3 3 3 3 2 2 2 2 2 2 2 2 3 3 3 3
9 8 7 7 7 6 5 7 8 10 11 11 12 13 13 12 10 9 7 6 6 5 5 5 4 4 4 4 4 3 3 3 3 3 3 3 3 3 3 3 3 4 4
9 8 8 8 8 6 5 6 8 9 11 11 11 12 13 13 12 10 9 8 6 6 5 5 5 5 5 5 4 4 4 3 4 3 3 3 3 4 4 4 4 4 4
9 9 9 8 8 5 4 6 8 9 10 11 11 12 13 13 13 12 10 9 8 7 6 6 5 5 6 6 5 5 5 5 5 5 4 4 4 5 5 5 5 5 5
10 9 9 9 8 6 5 6 8 8 10 11 11 11 12 12 13 12 11 10 9 8 7 7 6 6 6 6 6 6 6 6 7 7 6 6 6 6 7 7 7 7 7
10 10 10 9 9 7 6 5 7 8 9 10 11 12 12 13 14 13 12 11 10 9 8 8 8 8 7 7 7 7 8 8 8 8 8 8 8 8 8 8 8 8 8
11 10 9 9 9 7 7 5 6 7 8 10 11 13 13 13 14 15 13 12 11 11 10 9 9 9 9 9 9 9 9 9 9 10 10 10 9 9 9 9 9 9 10
11 10 9 9 8 7 7 5 5 5 8 10 12 13 14 14 15 15 14 13 12 12 11 11 11 11 11 11 10 11 11 11 11 11 12 11 11 11 11 11 11 12 12
11 11 10 9 9 8 7 6 6 7 8 10 11 12 14 14 15 15 15 14 13 13 12 12 12 12 13 12 12 12 12 13 13 14 14 13 13 13 13 13 13 13 14
12 11 10 10 10 9 7 7 7 7 8 10 10 12 13 14 15 15 15 15 15 14 14 13 13 13 14 14 14 14 14 14 15 16 16 15 15 16 15 15 15 16 16

GEFSSE_500_meanwind_144.txt.gz
Wind_Speed
5 6 5 6 7 7 8 9 10 9 9 9 9 9 9 9 8 8 8 7 7 7 7 7 7 6 6 5 5 6 5 6 5 5 5 5 6 6 7 7 8 8 8
4 5 6 6 7 7 8 8 8 8 9 9 9 9 8 8 8 8 8 7 7 6 6 6 6 5 5 5 5 5 5 6 5 5 5 6 6 7 7 7 7 7 8
4 5 5 6 6 7 7 7 8 8 8 8 8 8 8 8 7 7 7 7 6 6 6 6 5 5 5 5 5 5 5 5 5 5 5 6 6 6 7 7 7 7 7
3 4 5 5 6 7 6 6 7 8 8 7 7 7 7 7 7 7 6 5 5 5 5 5 5 5 5 5 5 5 5 5 5 4 4 5 5 6 7 7 7 7 7
3 4 5 5 5 5 5 6 6 7 7 7 7 7 7 6 6 6 6 5 5 5 5 5 4 4 4 4 5 5 5 5 5 4 5 6 6 6 6 7 7 6 6
3 3 4 4 4 4 4 5 5 7 7 7 7 7 6 6 6 6 5 5 4 5 5 4 4 4 4 4 4 4 5 5 4 4 5 6 6 6 6 6 6 5 5
2 2 3 3 4 4 4 4 5 5 6 6 6 6 6 5 5 5 5 4 4 5 4 4 4 4 4 4 4 4 4 4 4 3 4 6 6 5 6 6 5 5 5
2 1 2 2 3 4 4 5 5 5 5 6 6 6 6 5 5 4 4 4 4 4 4 3 4 4 4 4 4 3 4 4 3 3 4 5 5 5 5 5 4 4 5
1 1 1 2 3 4 5 5 5 6 6 6 6 6 6 5 4 4 4 4 4 4 3 3 3 3 3 3 3 3 3 3 3 3 4 4 4 4 4 4 4 4 4
2 1 1 2 3 4 5 7 6 6 7 7 7 6 6 5 5 5 4 4 3 4 3 3 3 3 2 3 2 2 2 3 2 2 3 3 3 3 3 3 3 3 3
4 2 2 3 4 5 5 7 8 7 7 7 8 7 6 5 4 4 3 3 3 4 3 3 3 3 2 3 2 2 3 3 2 2 3 3 3 3 2 2 2 2 2
6 4 4 5 5 5 6 6 8 8 8 8 8 8 7 5 5 4 3 3 3 4 4 3 3 3 3 2 2 2 2 2 2 2 2 2 2 2 2 1 1 1 1
8 7 6 6 5 5 6 7 7 8 8 8 8 8 7 6 5 4 4 3 3 3 3 3 3 3 3 2 2 2 2 2 2 2 1 1 1 1 1 0 0 0 0
9 9 8 7 5 4 5 5 7 7 8 8 8 8 7 7 5 5 4 3 3 4 3 3 3 3 3 3 2 2 2 2 2 1 1 1 1 0 0 0 1 1 1
10 9 9 8 7 6 6 6 6 7 8 8 7 7 6 6 6 5 4 4 4 3 3 3 3 3 3 2 2 2 1 1 1 1 0 1 1 1 1 1 1 1 1
11 11 10 8 8 7 7 6 6 7 8 8 8 8 7 7 6 6 5 4 3 3 3 3 3 3 2 2 2 2 1 1 1 0 0 1 1 0 1 2 1 2 2
13 12 11 9 10 9 8 6 6 7 8 8 9 9 8 8 7 7 6 5 4 4 3 3 3 3 2 1 1 1 2 1 1 1 1 1 1 1 2 2 2 2 2
15 14 11 10 10 9 7 5 5 6 7 8 9 9 9 9 8 7 7 6 5 5 4 3 4 4 3 3 2 2 1 2 2 2 1 1 1 2 2 3 3 3 3
15 15 12 10 11 9 7 5 5 5 7 8 9 10 10 10 9 8 8 7 6 6 5 4 4 4 4 4 3 3 2 3 3 2 3 3 3 3 3 4 4 4 4
16 15 13 11 11 10 8 6 5 4 6 8 9 9 10 10 10 9 9 8 7 7 6 5 5 5 5 5 4 4 4 4 4 4 4 4 4 3 4 4 5 5 5
17 16 13 11 11 10 9 7 5 5 6 8 9 10 10 10 11 10 10 9 9 8 7 6 6 6 6 6 5 6 5 5 5 6 5 6 5 5 5 6 6 6 6
17 16 14 12 11 11 10 8 6 6 6 7 8 10 11 11 11 11 11 10 9 9 8 7 7 7 7 7 7 6 7 7 7 8 8 8 8 7 7 7 8 8 8
17 16 15 13 12 11 11 10 8 7 7 7 8 9 11 11 11 12 12 11 10 10 9 9 9 9 8 8 8 8 8 9 9 9 8 9 9 9 9 8 9 9 9
17 17 15 14 13 12 11 10 9 8 7 8 9 9 10 11 12 12 12 12 11 11 10 10 10 10 10 9 9 9 9 9 10 9 9 10 10 10 11 10 10 10 11
17 17 16 15 14 13 12 10 9 8 7 7 8 9 9 11 12 13 13 13 12 12 11 11 11 11 10 10 10 11 11 11 11 12 12 11 11 12 12 13 13 13 13
17 16 16 15 14 14 13 11 9 8 8 7 8 9 10 10 11 12 12 13 13 12 12 12 12 12 11 12 12 12 12 12 12 13 13 13 14 14 15 16 15 15 16

GEFSSE_500_meanwind_150.txt.gz
Wind_Speed
6 7 6 6 6 6 6 5 5 4 4 3 3 3 2 2 2 2 2 3 3 3 4 4 5 5 6 6 6 6 6 6 6 6 6 6 7 7 7 9 9 8 8
6 7 6 6 5 6 6 6 5 5 4 3 3 2 2 2 1 2 2 2 2 3 3 3 4 4 5 5 6 5 6 5 6 6 6 6 6 7 8 8 8 8 7
7 6 5 5 4 5 6 5 4 4 4 3 2 2 2 2 2 2 2 2 2 2 2 3 3 4 4 4 5 5 5 6 6 6 6 6 6 7 7 8 8 7 7
6 5 5 5 5 5 5 5 4 3 3 3 2 2 2 2 2 2 2 2 1 1 1 2 3 3 3 4 4 4 5 5 6 6 7 6 7 7 7 7 7 7 6
5 5 5 5 4 4 4 4 3 2 2 3 3 2 2 2 2 2 2 2 2 2 1 1 1 2 3 3 4 4 5 5 6 6 6 7 7 8 8 7 7 6 6
5 5 4 4 4 3 2 3 2 2 2 2 3 3 3 2 2 2 2 3 2 1 1 1 1 1 2 3 4 4 4 5 5 6 6 7 8 8 7 7 6 6 5
5 4 3 3 3 2 2 2 1 1 1 2 3 3 3 3 3 3 2 2 2 1 1 1 1 2 3 3 4 4 4 4 5 6 6 7 7 7 7 6 6 5 5
5 3 2 1 1 1 1 1 1 1 2 2 3 3 4 3 3 3 3 2 2 1 1 1 1 2 3 3 3 4 4 4 5 5 6 6 6 6 5 5 5 5 5
6 3 2 1 0 1 1 1 2 2 3 3 3 3 4 4 4 3 3 2 2 2 2 2 2 3 3 3 3 3 3 4 4 5 5 5 5 5 5 4 5 4 4
6 5 2 0 1 2 2 3 3 3 3 4 4 4 4 3 3 3 3 2 1 1 1 1 2 3 3 3 3 3 3 3 4 4 4 4 5 4 4 4 4 4 3
6 5 3 2 1 2 2 3 3 4 4 4 5 4 4 4 3 3 3 2 2 2 2 1 2 2 3 3 3 3 3 3 4 3 3 4 4 4 3 3 2 3 3
9 8 6 3 1 2 2 2 3 4 4 5 5 5 5 5 4 3 3 2 2 2 2 1 2 2 3 3 3 3 3 3 3 3 3 3 3 3 2 2 2 2 3
10 9 7 5 2 3 2 2 3 4 4 5 5 5 5 5 4 3 3 3 2 2 2 2 2 2 3 3 2 2 2 2 3 3 3 3 2 2 2 1 1 1 2
10 9 7 6 4 3 2 2 3 4 5 5 5 5 5 6 5 4 3 3 3 2 2 2 2 2 3 3 3 2 2 2 2 2 2 3 2 2 2 1 1 1 2
11 10 8 6 5 3 2 3 2 3 4 5 5 6 6 6 6 5 5 4 3 2 2 2 2 3 3 3 2 2 2 2 2 2 2 2 2 2 1 1 2 2 3
12 11 9 6 6 5 3 2 3 3 4 5 6 6 6 6 6 6 5 4 4 3 2 2 3 3 3 3 3 2 2 2 2 2 2 2 2 1 1 1 1 2 3
13 12 10 9 8 6 4 2 2 3 5 6 7 6 7 6 6 6 6 5 4 4 3 3 3 3 3 3 3 3 3 2 2 3 3 3 3 2 1 1 1 2 3
13 12 10 10 9 8 6 3 1 2 4 6 7 8 7 7 7 6 6 6 5 4 4 3 3 3 3 3 3 3 3 3 3 3 3 3 3 3 3 2 3 3 3
13 12 11 10 10 9 7 4 1 2 4 6 7 8 8 8 8 7 7 6 6 5 4 4 4 4 4 4 4 4 4 4 4 4 4 4 5 4 4 4 4 4 4
14 13 11 10 10 10 8 5 3 1 3 5 7 8 8 9 9 9 8 8 7 6 6 6 6 6 5 5 5 6 6 6 6 6 5 6 6 5 5 5 5 5 5
14 13 12 11 10 10 9 6 4 2 2 4 6 7 8 8 9 9 9 9 8 8 7 7 7 7 6 6 7 7 7 7 7 7 7 7 8 7 7 7 7 7 7
14 13 13 12 11 10 9 7 5 3 3 3 4 6 7 8 8 10 10 10 10 9 8 8 8 8 8 8 8 8 9 8 8 8 8 9 9 9 9 9 9 9 8
13 13 13 12 11 10 9 8 7 5 4 4 5 6 7 8 9 10 10 11 11 11 9 9 9 9 9 9 9 9 9 10 10 10 10 10 10 10 10 11 10 10 10
13 13 13 13 12 11 10 8 7 6 5 5 5 6 8 9 10 10 11 11 11 11 10 10 10 10 10 10 10 10 10 10 10 11 11 11 11 11 12 12 11 12 12
13 13 13 13 13 12 11 10 8 7 5 6 6 7 8 10 10 11 11 12 12 11 11 11 11 11 11 11 10 11 11 11 11 11 11 12 12 13 13 14 14 15 14
13 13 14 13 12 12 11 10 9 8 6 5 5 6 7 8 9 10 11 12 12 12 12 12 12 12 12 12 11 11 12 13 13 13 13 13 13 14 14 15 16 16 16

GEFSSE_500_meanwind_156.txt.gz
Wind_Speed
6 5 5 5 5 6 7 7 8 8 8 8 7 7 6 6 6 6 6 5 5 5 5 5 5 6 6 6 6 6 6 6 6 7 7 7 7 7 8 8 8 8 8
6 6 6 6 6 6 6 7 7 8 7 7 7 6 5 5 5 5 5 5 5 4 4 5 5 5 5 5 5 5 6 6 6 6 6 7 7 7 8 8 7 7 7
5 5 6 6 6 6 6 7 7 6 6 6 6 5 4 4 4 4 4 4 4 4 4 4 5 5 5 5 5 5 5 5 6 6 6 6 7 7 7 7 7 6 7
5 5 6 6 6 6 7 6 6 6 5 4 4 4 3 3 4 3 4 4 4 3 4 4 4 4 4 4 4 5 5 5 5 6 6 6 6 7 7 7 7 6 6
5 5 6 6 6 6 6 6 5 5 5 4 3 3 3 4 4 4 4 4 3 3 3 3 3 3 3 4 4 4 5 5 5 5 6 6 6 6 6 6 6 6 6
5 5 5 6 6 6 5 5 5 5 4 4 3 3 3 3 4 4 4 4 3 3 3 2 3 2 3 3 3 4 4 5 5 5 6 6 5 5 5 5 5 6 6
5 5 5 5 6 6 6 6 5 4 4 4 3 4 4 3 3 4 3 3 3 3 3 3 2 2 2 2 3 3 3 4 4 4 5 5 4 4 4 5 5 4 5
6 5 4 4 5 5 5 5 4 3 3 3 3 3 3 3 2 3 3 3 3 3 3 2 2 2 3 3 3 3 3 4 4 4 5 4 4 4 4 4 3 3 3
6 5 4 4 4 4 3 3 3 2 2 2 2 2 2 2 2 2 3 3 3 3 3 3 2 3 3 3 3 3 4 4 4 4 4 4 4 3 3 3 3 2 2
6 6 4 3 3 3 2 2 2 1 0 1 1 2 1 1 2 2 2 2 3 3 2 2 2 3 3 3 4 4 4 4 4 4 3 3 3 3 2 2 2 2 1
7 6 5 3 2 2 2 1 1 0 1 1 2 1 1 1 1 1 2 2 2 2 2 2 2 3 3 3 4 4 3 3 3 3 3 2 2 2 1 1 1 1 1
8 7 5 4 1 1 1 1 1 1 1 2 2 2 2 2 1 1 2 2 2 2 2 1 2 3 3 4 4 3 3 3 3 2 2 1 1 1 1 1 0 1 0
8 7 6 5 3 2 1 1 1 1 1 2 3 3 3 2 1 1 1 2 2 2 2 1 2 3 3 3 4 3 3 3 2 2 1 1 1 0 0 1 1 2 2
9 8 7 5 3 2 1 0 0 2 2 3 4 4 4 3 2 2 2 2 2 2 2 1 2 2 3 3 3 3 3 2 2 1 1 1 1 1 1 2 2 2 2
10 9 8 7 5 3 2 0 1 1 2 3 4 4 5 4 3 3 3 3 2 2 3 2 2 2 3 2 2 2 2 2 1 1 1 1 1 1 2 2 2 2 3
11 10 9 8 7 5 3 1 0 1 2 3 5 5 5 5 5 4 4 4 3 3 3 3 2 3 3 3 2 1 1 1 1 1 2 2 2 3 2 3 3 3 3
12 11 10 10 9 7 5 2 1 1 2 3 5 6 6 5 5 5 5 5 4 4 3 3 3 3 4 4 4 3 3 2 2 2 3 3 3 3 3 4 4 4 4
12 11 11 11 10 9 7 4 2 2 2 3 5 6 6 6 6 6 6 6 6 5 4 4 4 3 4 4 5 4 4 4 4 4 4 5 5 5 5 5 5 5 6
13 12 11 11 10 9 8 6 4 2 2 3 5 6 7 7 7 7 7 7 7 6 6 6 5 4 4 4 5 6 6 5 5 5 6 6 6 7 7 7 7 6 7
12 12 11 11 10 9 8 7 5 3 3 2 4 6 7 8 8 8 8 8 8 7 7 7 7 6 6 5 6 7 7 7 7 7 7 8 8 8 8 8 8 8 8
13 12 12 11 10 8 8 7 6 5 3 3 4 5 7 8 8 8 8 9 9 8 8 8 8 7 7 8 8 8 8 8 8 8 9 9 9 9 9 9 9 9 9
13 12 12 12 10 9 8 8 6 5 3 3 4 5 6 8 9 9 9 10 10 10 10 9 9 9 9 9 9 9 9 9 9 9 10 10 10 11 11 11 11 11 11
14 13 12 12 11 10 9 8 7 5 5 5 6 7 8 9 10 10 9 10 11 11 11 11 11 10 10 10 9 10 10 10 11 10 11 12 12 12 12 12 13 12 13
14 14 14 13 12 11 11 10 8 7 6 6 6 7 9 9 10 10 11 11 11 12 12 12 12 11 11 11 11 11 11 11 12 12 12 12 13 13 14 14 14 15 15
14 14 14 14 13 12 11 10 10 9 7 6 6 7 8 9 10 11 12 13 13 13 14 13 13 12 12 12 12 12 12 13 13 14 14 13 14 14 14 15 16 16 17
14 14 14 14 13 12 11 11 11 10 9 7 6 7 7 8 10 12 12 12 14 15 15 14 14 14 14 14 14 14 13 14 14 14 15 15 15 16 16 17 17 18 18

GEFSSE_500_meanwind_162.txt.gz
Wind_Speed
8 6 6 6 8 9 9 9 10 11 12 12 11 11 11 11 10 10 9 9 9 9 8 8 8 7 7 7 6 6 6 7 7 7 6 6 7 7 7 7 7 7 7
7 6 6 7 8 8 9 10 10 11 11 11 11 11 10 10 10 9 9 9 8 8 8 8 8 7 6 6 6 5 5 6 6 7 7 7 7 7 7 7 6 7 7
7 7 7 6 7 8 9 9 9 10 10 10 9 9 9 9 9 9 9 8 8 7 7 7 7 6 6 6 5 5 5 5 6 7 6 6 7 7 7 6 6 7 7
6 5 5 6 6 7 8 8 9 9 9 9 8 8 8 8 8 8 8 8 7 7 7 6 6 6 5 5 5 5 5 6 6 7 6 6 6 7 7 6 7 6 7
5 4 4 5 6 6 7 7 7 8 8 7 8 8 8 8 8 8 8 7 7 7 6 6 6 5 5 5 5 5 5 5 6 7 6 6 6 7 7 7 7 7 6
5 4 4 5 5 5 6 7 7 7 7 8 8 8 8 8 8 7 7 7 7 6 6 6 5 5 4 5 5 5 5 5 6 6 6 6 6 6 6 6 6 6 6
6 4 4 4 5 5 6 7 7 7 7 8 8 8 8 8 8 7 7 6 6 6 5 6 5 4 4 4 4 5 5 4 5 5 5 5 5 5 6 6 5 5 5
6 4 4 4 4 5 6 6 6 6 6 7 8 8 8 8 8 7 6 6 6 5 5 5 5 4 3 4 4 5 5 4 5 5 5 5 4 5 5 5 5 4 4
5 3 3 3 3 4 5 5 5 5 6 6 7 8 8 7 7 6 6 5 5 5 5 5 4 4 4 4 5 5 5 5 5 5 4 4 4 4 4 4 4 4 4
5 3 3 3 3 3 3 4 5 5 5 6 7 8 7 7 6 6 6 6 6 5 4 4 4 5 5 4 5 5 5 4 5 5 4 3 3 3 3 4 4 3 3
5 4 2 1 2 3 3 3 4 5 5 5 7 7 6 6 6 6 7 6 5 5 4 4 4 5 5 5 6 5 5 5 4 4 4 3 3 2 3 3 3 2 2
6 5 3 1 0 1 2 3 4 5 5 5 7 7 6 6 6 6 6 6 5 4 4 4 5 5 5 5 5 5 5 4 4 3 3 3 2 2 2 2 2 2 1
7 5 4 2 1 0 2 2 3 4 4 5 6 6 6 5 5 5 5 5 5 4 4 5 5 6 6 5 5 4 4 4 3 3 2 2 1 1 1 1 1 1 1
8 7 6 4 2 1 2 2 3 4 4 5 6 6 6 5 5 6 6 5 5 4 4 5 6 6 6 5 5 4 4 3 3 2 2 2 1 1 0 1 1 2 2
9 8 7 5 3 1 1 2 3 4 4 5 6 6 6 6 5 6 6 6 5 5 4 4 5 5 5 5 4 4 4 3 2 2 2 2 1 1 1 1 2 2 2
9 8 8 7 6 4 2 1 3 4 4 5 6 6 6 6 5 6 6 6 5 5 4 4 4 5 4 4 3 3 3 3 2 2 2 2 2 2 2 2 3 3 3
10 9 8 8 7 6 5 2 2 3 4 4 5 6 6 6 6 6 6 6 5 4 4 4 4 4 4 4 4 4 4 3 3 3 3 3 3 3 4 4 4 4 4
12 11 10 9 8 7 6 4 1 2 2 3 5 6 6 6 6 7 7 6 6 5 5 4 5 5 4 4 4 5 5 5 5 5 5 5 5 5 5 5 5 5 5
12 12 11 10 10 9 7 6 3 1 2 3 4 5 6 6 7 7 7 7 6 6 6 5 5 5 6 6 6 6 6 7 7 7 7 7 7 7 7 7 6 7 7
12 12 12 11 11 9 8 7 5 3 1 3 4 5 6 7 8 8 8 7 7 7 8 7 7 7 7 7 6 7 8 9 9 9 9 8 9 9 9 8 8 8 9
12 12 13 12 11 10 8 7 7 5 3 3 4 5 6 7 8 8 9 8 8 8 8 8 9 9 8 8 7 8 9 9 9 10 10 10 10 10 10 10 10 10 10
12 12 13 13 12 11 9 8 8 7 5 4 4 5 7 8 8 9 9 9 10 9 9 10 10 10 10 9 9 10 10 10 10 11 11 11 11 11 11 12 12 11 12
12 12 12 12 12 11 10 9 8 7 7 5 4 4 6 8 8 9 9 10 10 10 10 11 11 11 12 11 11 11 11 12 12 11 11 12 12 12 12 12 13 13 13
12 12 12 12 12 11 9 10 9 8 8 6 4 4 5 6 7 8 9 10 11 11 11 12 12 13 13 13 13 12 12 12 13 13 13 13 13 13 13 13 14 14 14
11 12 12 12 12 11 10 10 10 9 9 7 5 5 4 5 6 7 9 10 11 11 12 12 13 14 14 14 14 14 14 14 14 14 14 15 15 14 14 14 15 15 16
11 11 12 13 13 11 10 10 9 10 9 8 7 6 6 6 7 8 9 10 11 12 12 13 14 15 15 16 16 16 16 16 16 16 16 16 16 16 16 17 17 17 17

GEFSSE_500_meanwind_168.txt.gz
Wind_Speed
3 4 4 5 4 5 6 7 8 8 9 9 9 9 9 9 9 9 8 8 8 8 7 7 7 7 6 6 6 6 6 6 6 6 6 6 6 7 7 6 7 8 7
2 3 4 4 5 6 7 7 7 8 8 8 9 8 8 8 8 8 8 7 7 7 7 6 6 7 6 6 6 6 5 6 6 6 6 5 6 6 7 7 7 8 7
2 2 3 4 4 6 6 6 6 6 7 8 8 8 8 8 7 7 7 7 7 7 7 6 6 6 6 5 5 5 5 5 5 5 5 5 6 6 7 7 7 8 8
3 3 3 3 3 5 5 5 4 5 6 7 7 7 7 7 8 7 7 7 7 6 6 6 6 5 5 4 4 4 4 5 5 5 5 5 6 7 7 7 7 7 7
3 3 3 2 2 3 3 3 3 4 5 6 6 7 6 6 7 7 7 6 6 6 5 5 5 4 4 4 4 4 5 5 5 5 5 5 6 6 7 7 6 7 7
4 3 3 2 2 2 3 3 3 3 3 5 5 6 6 6 6 6 6 6 6 5 5 5 4 3 3 4 4 5 5 5 5 5 5 5 6 6 7 7 7 7 7
5 3 2 1 0 1 3 3 3 3 3 4 5 5 5 6 6 5 5 5 5 5 4 4 4 3 3 4 4 4 4 5 5 5 5 5 6 6 6 6 7 6 6
6 4 3 2 1 1 1 2 2 3 3 4 5 5 5 5 5 5 5 5 5 5 4 4 4 3 3 4 4 4 4 5 5 5 5 5 5 5 5 5 5 5 4
6 5 4 3 2 1 0 1 2 2 3 4 5 5 5 5 5 5 4 4 5 5 4 4 4 3 3 4 4 4 4 4 4 5 5 5 4 5 4 4 4 3 3
7 6 5 3 2 1 1 2 2 2 3 3 4 5 4 4 5 4 4 3 4 5 4 4 4 3 3 4 4 4 4 4 4 4 4 4 4 3 3 3 3 2 2
8 6 5 4 3 2 1 1 3 3 3 3 4 4 5 4 4 4 4 4 4 4 4 4 3 4 4 3 4 4 4 4 4 4 4 3 3 3 3 3 2 1 2
9 8 6 5 4 3 1 1 2 2 3 3 3 4 4 4 4 4 4 4 3 4 4 3 4 4 3 4 5 4 4 4 4 4 3 3 3 3 3 2 2 1 1
11 10 8 7 6 5 3 2 1 2 2 3 3 3 3 3 4 4 4 3 3 3 3 4 4 4 4 4 4 4 4 3 3 3 3 3 2 2 2 2 1 1 2
12 11 10 9 8 6 4 3 1 1 2 3 3 3 3 3 3 3 4 4 3 3 3 4 4 5 5 5 4 4 3 3 2 3 2 2 2 1 1 0 1 2 2
14 13 12 11 10 8 6 5 2 1 2 2 3 4 4 4 4 4 4 4 4 3 3 4 4 5 5 5 4 3 3 3 2 1 1 1 1 1 1 1 1 2 3
14 14 13 12 11 10 7 6 4 1 2 2 3 3 3 4 4 4 4 4 3 3 2 3 4 6 5 5 4 3 2 2 1 1 1 1 1 2 2 2 2 3 3
15 15 14 13 12 11 9 8 6 3 2 2 2 3 3 4 4 4 4 4 4 3 3 3 4 5 5 5 4 4 3 2 2 2 3 3 3 3 3 3 3 4 4
15 15 15 15 14 12 10 9 6 4 3 2 3 3 4 4 5 5 5 4 4 4 4 4 4 5 5 5 5 4 4 4 4 4 4 5 5 5 5 5 5 5 5
16 16 15 15 14 13 12 10 7 5 4 3 4 4 5 6 6 6 6 6 6 6 6 6 6 6 6 6 6 5 5 5 6 6 6 7 7 6 6 7 7 7 7
16 16 16 15 15 14 13 11 9 7 6 5 4 4 5 5 6 7 7 8 8 7 7 7 8 8 7 7 6 7 6 7 7 7 8 8 8 8 8 9 9 9 8
15 16 16 15 15 15 14 12 10 8 7 6 4 4 4 5 6 6 7 8 8 9 9 8 9 9 8 8 8 8 8 8 9 9 9 9 9 10 10 11 10 9 9
15 16 16 16 16 15 14 13 11 10 8 7 6 5 5 5 5 6 8 9 9 10 10 10 10 10 10 10 10 10 10 10 10 10 11 10 11 11 11 11 11 11 11
15 16 16 16 16 15 14 12 12 12 10 8 8 7 5 5 5 6 7 8 9 10 10 10 11 11 11 11 12 12 12 12 12 12 12 12 12 12 12 12 12 12 12
15 16 16 16 16 16 15 13 13 12 11 10 9 7 6 6 6 6 6 7 8 9 10 10 10 11 12 12 12 12 12 13 13 13 13 13 13 14 14 14 14 14 13
15 15 16 16 16 16 16 14 13 13 12 11 10 9 8 7 6 6 6 7 8 8 9 10 11 11 12 12 13 13 13 14 14 14 14 14 14 15 15 15 15 15 15
15 15 16 16 17 16 16 15 14 13 13 12 11 9 9 9 8 7 8 8 8 9 10 11 11 11 12 13 13 14 14 14 15 15 15 15 15 16 16 16 16 17 17

GEFSSE_500_meanwind_174.txt.gz
Wind_Speed
4 4 5 5 4 4 4 4 3 3 4 5 5 5 5 5 5 5 5 5 6 5 5 5 5 5 5 5 5 6 6 6 6 7 7 7 6 7 7 7 7 8 8
5 5 5 5 5 4 3 3 3 3 4 4 5 5 5 5 5 5 5 5 6 5 5 5 4 4 5 5 5 6 6 6 6 7 7 7 7 7 6 7 7 8 8
5 4 5 5 4 4 3 3 3 3 3 4 4 4 5 5 5 4 4 5 5 5 4 4 4 4 5 5 5 5 6 6 6 6 7 7 7 7 6 7 7 7 7
5 4 3 4 3 3 3 3 3 3 3 3 4 4 5 5 5 5 5 5 5 5 4 4 4 4 5 5 4 5 5 6 5 6 6 7 7 7 7 7 7 7 8
6 5 4 4 3 3 4 4 3 2 2 3 4 4 5 5 4 4 5 5 5 5 4 4 3 3 4 4 4 4 4 5 5 5 6 6 7 6 7 7 7 8 8
7 6 5 4 3 3 3 3 3 3 2 2 4 4 5 5 4 4 5 5 5 5 4 4 3 3 3 3 3 4 4 4 4 5 5 6 6 6 7 7 7 7 7
7 6 5 4 4 4 4 4 3 3 2 2 3 4 3 3 4 4 5 5 5 5 4 4 3 3 3 3 4 4 4 4 4 4 6 6 6 7 7 6 6 7 6
8 6 5 4 3 3 3 3 3 2 2 2 3 3 3 3 4 5 5 5 5 4 4 4 3 3 3 3 4 4 4 4 4 5 6 6 6 6 6 6 5 5 5
8 7 6 5 3 3 2 3 3 2 2 2 3 3 3 3 3 4 4 5 4 4 4 4 4 3 3 3 4 4 4 4 5 5 6 6 6 6 6 5 5 5 5
9 8 6 6 4 3 2 2 2 2 2 2 3 3 3 3 3 3 4 4 4 4 4 4 4 4 3 3 4 4 4 4 5 5 6 6 5 5 5 5 5 4 4
11 9 8 7 6 4 3 2 2 2 3 3 3 3 3 3 3 3 3 4 4 4 4 4 4 4 3 4 4 4 4 5 4 5 5 5 5 5 4 5 4 4 3
12 10 9 8 6 5 4 2 2 3 3 4 3 3 3 3 3 2 3 3 3 4 4 4 5 4 3 4 5 5 5 4 4 4 4 4 4 4 4 4 4 4 3
13 11 10 8 7 6 5 3 2 3 4 4 4 3 2 3 3 3 3 4 3 3 4 4 4 5 4 4 5 5 5 4 4 4 4 4 4 4 4 4 4 4 3
14 12 12 10 8 7 5 4 2 3 3 4 4 3 3 2 3 3 4 4 4 3 4 4 4 4 4 5 5 5 4 4 4 4 3 4 4 4 4 3 3 3 3
15 13 12 12 11 8 7 5 3 2 2 3 3 3 3 3 3 3 3 4 4 4 4 5 5 5 5 5 5 5 5 4 4 3 3 3 4 4 4 4 3 4 4
17 16 14 13 12 10 8 6 4 3 2 3 3 3 3 3 3 3 4 4 4 4 5 6 5 6 6 7 6 6 5 5 5 4 4 3 4 5 5 5 4 4 4
18 17 16 15 14 12 10 8 6 4 3 1 2 3 3 4 4 3 4 4 4 4 5 6 6 6 7 8 7 7 6 6 5 6 5 5 5 5 6 6 6 5 5
18 17 17 16 15 14 12 10 9 7 4 3 0 2 2 3 4 4 4 5 5 5 5 5 6 7 8 8 8 8 8 7 7 7 7 7 6 7 6 7 7 7 7
17 17 16 16 16 15 13 11 10 9 6 4 2 0 1 3 4 4 5 5 6 6 6 6 6 7 8 8 8 9 8 8 8 8 8 9 8 8 8 8 8 8 8
17 16 16 16 16 15 14 12 11 10 7 5 4 3 1 1 2 4 5 6 6 6 6 6 6 7 8 9 9 10 9 9 10 10 10 10 10 10 10 9 10 10 9
16 16 16 16 16 15 14 12 12 11 9 6 5 5 3 1 1 2 4 5 6 6 6 7 7 8 9 10 10 11 11 11 11 11 12 12 12 12 12 12 12 11 11
15 15 15 15 15 14 14 13 12 11 10 8 7 5 4 2 1 2 3 4 5 6 6 8 8 8 9 10 11 12 12 12 12 12 13 13 14 14 14 14 14 13 13
14 14 14 15 16 15 14 14 12 11 10 8 8 6 5 3 2 1 2 3 5 6 7 8 9 10 10 10 11 11 12 13 13 13 13 14 15 15 15 15 15 15 15
13 14 14 14 15 15 14 14 13 11 9 8 7 7 6 4 3 2 3 3 4 5 7 8 9 10 11 11 12 12 12 13 14 14 14 14 15 16 16 16 16 16 16
12 13 13 14 14 14 14 14 13 11 10 9 8 7 7 6 4 4 4 4 5 6 7 8 9 10 11 12 13 13 13 14 14 15 15 15 15 15 17 17 17 18 17
11 12 12 13 14 14 14 14 13 12 11 10 9 8 7 6 5 5 5 5 6 6 7 8 9 10 11 11 12 13 14 15 15 15 15 16 16 16 16 18 18 19 19

GEFSSE_500_meanwind_180.txt.gz
Wind_Speed
4 4 4 4 5 5 5 5 5 4 5 6 7 7 6 6 6 5 5 4 4 4 4 4 4 4 4 4 5 5 5 5 5 5 6 6 6 6 6 6 6 6 7
4 4 4 4 4 5 5 5 4 5 5 6 6 6 6 6 5 4 4 3 3 3 3 3 4 4 4 4 4 4 5 5 5 5 6 6 6 6 6 5 6 7 8
3 3 3 4 4 5 5 5 5 4 5 5 5 5 5 5 4 3 2 3 3 3 2 3 3 3 4 3 3 3 4 4 5 5 5 6 6 6 6 6 6 7 7
3 2 2 4 4 5 5 5 5 5 5 4 4 5 4 4 3 3 2 3 3 2 2 2 3 3 3 3 3 3 3 3 4 4 5 5 5 6 6 6 7 7 7
4 3 3 3 4 4 4 5 4 5 4 4 4 4 4 3 3 3 3 2 3 2 2 2 2 2 2 2 2 3 3 3 4 4 5 5 5 5 6 6 6 6 6
4 4 4 4 4 4 4 4 5 5 4 4 4 4 3 3 3 3 2 2 3 2 2 1 1 1 1 1 1 2 2 3 3 3 4 4 4 5 5 5 5 5 5
5 5 5 5 4 4 4 4 5 5 5 4 4 3 3 2 2 2 2 2 2 2 2 1 1 1 1 1 2 2 1 2 2 3 3 3 3 4 4 4 4 4 4
7 7 6 5 4 4 4 4 4 5 5 4 3 3 2 3 2 2 2 2 1 1 2 2 2 2 2 1 2 2 1 2 2 2 2 3 3 3 3 3 3 3 4
8 7 6 5 4 4 3 3 3 4 4 3 3 3 2 2 2 2 2 2 1 1 2 2 2 2 2 2 2 2 2 2 2 3 2 3 3 3 3 3 3 3 3
9 8 7 5 4 3 3 3 3 2 3 3 2 2 2 2 2 2 2 2 2 1 2 2 2 2 2 2 3 3 3 2 2 2 2 3 3 3 3 3 2 2 2
10 9 8 6 5 3 3 3 3 3 3 3 3 3 2 2 2 2 2 2 2 2 2 2 2 3 2 3 3 2 2 2 3 3 3 3 3 3 3 3 2 2 2
11 10 9 7 5 4 4 3 3 3 3 2 2 3 2 2 2 2 2 2 2 2 2 2 3 3 3 3 3 3 2 2 3 3 3 3 3 3 3 3 3 3 3
12 11 10 8 7 5 5 4 3 2 2 2 2 2 2 2 2 2 2 2 2 2 2 3 4 4 3 3 3 3 2 3 3 3 4 4 3 3 3 3 3 3 3
13 12 11 10 8 7 6 4 2 2 2 2 2 2 2 1 1 3 3 3 2 3 3 3 3 3 3 3 3 3 3 3 3 4 4 4 4 4 4 4 4 4 4
14 13 12 11 9 8 7 6 3 1 2 2 2 2 2 2 2 2 3 3 4 3 3 4 4 3 3 4 4 4 4 4 4 4 4 4 4 5 5 5 5 5 5
15 14 14 12 11 10 9 8 5 3 1 1 2 2 2 2 2 3 3 4 3 4 4 4 4 4 4 5 5 5 5 5 5 5 5 5 5 5 6 6 7 7 7
16 15 15 14 12 10 9 8 7 4 3 1 1 2 2 3 3 3 4 4 4 4 5 5 5 5 5 6 6 6 6 6 6 6 6 6 6 6 7 7 8 8 8
16 15 15 14 13 11 10 9 8 6 4 2 1 1 3 3 3 4 5 5 5 4 5 6 7 6 6 6 6 7 7 8 8 7 8 8 8 8 8 9 9 9 9
15 15 15 14 13 12 10 9 8 7 5 3 2 1 2 3 4 5 6 6 6 5 5 6 7 7 8 8 8 8 9 9 10 9 9 10 10 11 10 10 11 11 11
15 14 14 14 13 12 11 10 9 7 6 5 3 2 1 2 3 4 6 6 6 6 5 6 7 8 8 8 9 9 10 10 11 11 11 11 12 13 12 12 12 13 12
14 14 14 14 13 13 12 10 10 8 7 6 5 3 2 2 2 3 5 6 6 6 6 6 7 7 8 9 9 10 11 12 12 12 12 13 14 14 14 15 14 14 14
14 13 13 13 13 13 12 11 10 9 8 7 6 4 4 3 2 2 2 4 6 7 7 7 8 8 9 9 10 11 12 12 12 12 13 14 14 15 16 16 17 17 17
13 13 13 13 12 12 12 12 11 10 9 8 7 6 5 3 2 2 3 3 4 5 7 8 9 9 10 11 11 12 12 12 13 13 14 14 15 16 16 17 18 19 18
12 13 13 13 12 12 12 12 11 10 9 8 8 7 7 5 3 3 3 3 4 4 6 8 9 10 11 12 13 14 14 15 15 15 15 15 16 16 17 18 18 18 19
11 11 12 13 12 12 12 11 11 11 10 9 8 7 6 6 5 5 4 5 5 6 6 7 8 10 12 13 14 15 15 16 16 16 16 17 18 18 18 18 18 19 19
10 10 10 11 12 12 12 11 11 11 10 9 8 8 6 7 6 6 6 6 6 7 7 8 9 10 11 12 13 15 15 15 16 17 17 18 19 20 20 19 19 19 20

GEFSSE_500_meanwind_186.txt.gz
Wind_Speed
5 4 5 5 6 7 7 8 9 9 10 12 13 13 13 13 13 12 11 10 9 9 8 8 7 7 6 6 6 5 5 5 5 5 5 6 6 5 5 5 5 5 6
4 4 4 5 5 5 7 7 8 9 11 12 12 13 12 12 12 10 10 9 9 8 8 7 7 6 6 6 6 5 5 5 5 5 5 5 5 6 6 6 5 5 6
4 5 5 5 5 6 6 7 8 8 9 11 11 11 11 11 10 9 9 8 8 7 7 6 6 6 6 6 5 5 5 5 5 5 5 5 6 6 6 6 5 5 6
5 4 4 5 4 5 6 7 7 7 8 9 10 10 10 10 9 8 8 8 7 7 6 6 6 6 6 5 5 5 5 5 4 5 5 6 6 6 6 5 5 5 6
5 4 4 4 4 5 5 6 7 7 8 9 9 9 9 9 9 8 8 7 6 6 6 6 5 5 5 5 5 5 5 5 4 5 5 5 6 6 6 5 5 6 6
6 5 4 4 4 4 5 6 7 8 9 8 8 8 9 9 8 7 7 6 6 5 5 5 5 5 5 5 5 5 5 4 4 5 5 5 5 5 5 5 5 5 5
6 5 5 4 4 4 4 5 7 8 8 8 8 8 8 8 8 7 7 7 6 6 5 5 5 5 4 4 4 4 4 4 4 5 5 5 4 5 4 4 4 4 5
6 6 5 4 4 4 4 6 7 8 7 7 7 7 6 6 6 7 7 6 6 5 4 5 5 5 4 4 4 4 4 4 4 5 5 4 4 4 4 4 3 3 4
8 6 5 5 4 4 5 6 6 7 7 7 6 7 6 6 6 6 6 6 6 5 4 4 4 4 4 4 4 4 3 3 3 4 4 3 4 4 4 3 3 3 3
8 7 6 5 4 4 4 5 5 6 6 6 6 6 6 6 6 7 6 6 5 5 4 4 4 4 4 4 4 4 3 3 3 3 4 4 4 3 3 3 3 3 3
10 8 7 5 4 3 4 4 4 5 5 5 5 6 5 6 7 7 6 6 5 5 4 4 3 4 4 4 4 4 3 3 3 3 3 3 3 3 3 3 3 3 4
11 10 8 7 6 4 4 3 4 4 5 5 5 5 5 6 6 6 6 5 5 4 4 4 3 4 4 4 4 4 4 3 3 3 3 3 3 4 4 4 4 4 4
11 10 9 7 7 6 5 4 4 4 4 4 4 4 4 4 5 6 6 5 4 3 4 4 3 4 4 4 4 3 3 3 3 4 3 4 4 4 5 5 5 5 5
12 11 10 9 7 6 6 5 4 3 3 3 3 4 4 4 4 5 5 5 4 3 3 4 4 4 4 4 4 4 4 3 3 4 4 4 5 5 5 5 5 5 6
14 12 11 10 9 8 6 6 5 3 2 3 3 3 3 3 3 4 5 5 4 4 4 4 5 5 4 4 4 3 4 4 4 4 5 5 6 6 6 6 6 6 6
14 13 12 11 10 9 7 6 5 4 3 1 2 3 3 4 4 4 5 5 4 4 4 4 5 4 4 4 4 4 3 3 5 5 6 6 6 7 7 7 7 7 7
14 14 13 12 11 10 9 8 7 6 5 3 0 2 3 3 4 4 5 5 4 5 5 4 5 5 4 4 4 5 4 5 5 6 6 7 7 7 7 7 7 7 8
14 14 13 13 12 11 10 9 8 7 6 5 3 0 2 3 4 4 5 5 5 5 5 5 6 6 6 6 6 6 6 6 6 6 7 7 8 8 8 9 8 8 9
14 13 13 13 12 11 10 9 8 7 6 6 5 2 1 2 3 3 4 5 5 4 4 5 5 6 6 7 7 7 7 8 8 8 8 9 9 9 9 10 10 10 11
14 14 13 13 12 11 11 10 9 8 7 7 6 4 3 2 2 3 3 4 4 4 5 5 5 6 7 7 7 7 8 9 9 9 9 10 11 11 11 12 12 12 12
14 14 14 13 13 12 11 11 9 9 8 7 7 5 4 3 2 2 2 3 4 4 5 5 5 7 8 8 8 8 9 10 10 11 11 11 12 12 12 12 13 14 14
13 13 13 13 13 12 12 11 11 10 9 8 7 6 5 4 3 3 3 2 3 4 4 5 6 7 8 8 9 9 10 11 11 12 12 12 12 13 13 13 13 15 15
12 12 12 12 12 12 12 11 11 11 10 9 8 7 6 5 4 4 4 3 3 4 5 6 7 7 8 9 10 10 11 12 12 13 14 14 14 14 14 15 15 15 16
11 11 11 11 11 11 12 11 11 11 11 10 10 9 6 6 6 5 5 5 5 5 6 7 8 8 8 9 11 12 12 13 13 14 15 15 16 16 16 16 17 17 17
9 10 10 10 10 10 11 11 11 11 10 10 10 10 8 7 7 6 6 7 7 6 6 7 8 8 8 9 10 12 13 14 15 15 16 17 18 18 18 18 18 18 18
8 8 9 10 9 9 10 10 10 10 10 9 9 9 9 8 8 8 7 7 7 7 7 8 8 8 9 10 10 11 13 14 15 16 16 17 18 18 19 19 19 19 19